Time,TemperatureF,DewpointF,PressureIn,WindDirection,WindDirectionDegrees,WindSpeedMPH,WindSpeedGustMPH,Humidity,HourlyPrecipIn,Conditions,Clouds,dailyrainin,SoftwareType,DateUTC
2013-03-22 00:00:00,52.9,8.4,29.44,WNW,293,2.2,3.1,17,0.00,,,0.00,WUHU216HW,2013-03-22 06:00:00,
2013-03-22 00:04:00,52.7,8.3,29.44,NNW,338,2.0,4.0,17,0.00,,,0.00,WUHU216HW,2013-03-22 06:04:00,
2013-03-22 00:05:00,52.6,8.1,29.44,North,0,4.5,4.7,17,0.00,,,0.00,WUHU216HW,2013-03-22 06:05:00,
2013-03-22 00:09:00,52.2,7.8,29.44,WNW,293,2.9,4.7,17,0.00,,,0.00,WUHU216HW,2013-03-22 06:09:00,
2013-03-22 00:10:00,52.2,7.8,29.44,West,270,1.3,4.7,17,0.00,,,0.00,WUHU216HW,2013-03-22 06:10:00,
2013-03-22 00:11:00,52.2,7.8,29.44,WNW,293,2.0,4.7,17,0.00,,,0.00,WUHU216HW,2013-03-22 06:11:00,
2013-03-22 00:14:00,51.8,7.6,29.44,West,270,2.7,4.7,17,0.00,,,0.00,WUHU216HW,2013-03-22 06:14:00,
2013-03-22 00:15:00,51.8,7.6,29.44,WNW,293,1.6,4.5,17,0.00,,,0.00,WUHU216HW,2013-03-22 06:15:00,
2013-03-22 00:16:00,51.8,7.6,29.44,WNW,293,1.6,4.5,17,0.00,,,0.00,WUHU216HW,2013-03-22 06:16:00,
2013-03-22 00:19:00,51.5,8.7,29.44,West,270,2.5,4.5,18,0.00,,,0.00,WUHU216HW,2013-03-22 06:19:00,
2013-03-22 00:20:00,51.5,7.2,29.44,WSW,248,2.9,4.5,17,0.00,,,0.00,WUHU216HW,2013-03-22 06:20:00,
2013-03-22 00:21:00,51.5,7.2,29.44,WSW,248,3.8,4.5,17,0.00,,,0.00,WUHU216HW,2013-03-22 06:21:00,
2013-03-22 00:24:00,51.3,8.7,29.44,West,270,4.7,4.9,18,0.00,,,0.00,WUHU216HW,2013-03-22 06:24:00,
2013-03-22 00:25:00,51.1,8.5,29.44,WNW,293,3.4,4.9,18,0.00,,,0.00,WUHU216HW,2013-03-22 06:25:00,
2013-03-22 00:26:00,50.9,8.3,29.44,WNW,293,4.3,4.9,18,0.00,,,0.00,WUHU216HW,2013-03-22 06:26:00,
2013-03-22 00:29:00,50.8,8.2,29.44,NW,315,2.0,4.9,18,0.00,,,0.00,WUHU216HW,2013-03-22 06:29:00,
2013-03-22 00:30:00,50.8,8.2,29.44,WSW,248,1.8,4.9,18,0.00,,,0.00,WUHU216HW,2013-03-22 06:30:00,
2013-03-22 00:32:00,50.8,8.2,29.44,WNW,293,0.4,4.9,18,0.00,,,0.00,WUHU216HW,2013-03-22 06:32:00,
2013-03-22 00:34:00,50.6,8.0,29.44,West,270,1.8,4.7,18,0.00,,,0.00,WUHU216HW,2013-03-22 06:34:00,
2013-03-22 00:35:00,50.4,7.9,29.44,West,270,1.8,4.7,18,0.00,,,0.00,WUHU216HW,2013-03-22 06:35:00,
2013-03-22 00:36:00,50.4,7.9,29.44,West,270,2.5,4.5,18,0.00,,,0.00,WUHU216HW,2013-03-22 06:36:00,
2013-03-22 00:37:00,50.4,7.9,29.44,West,270,3.4,4.3,18,0.00,,,0.00,WUHU216HW,2013-03-22 06:37:00,
2013-03-22 00:40:00,50.0,7.6,29.44,NNW,338,1.8,4.9,18,0.00,,,0.00,WUHU216HW,2013-03-22 06:40:00,
2013-03-22 00:41:00,50.0,7.6,29.44,NW,315,1.8,4.9,18,0.00,,,0.00,WUHU216HW,2013-03-22 06:41:00,
2013-03-22 00:42:00,50.0,7.6,29.44,NW,315,1.1,4.9,18,0.00,,,0.00,WUHU216HW,2013-03-22 06:42:00,
2013-03-22 00:45:00,49.7,7.3,29.44,WSW,248,1.1,4.9,18,0.00,,,0.00,WUHU216HW,2013-03-22 06:45:00,
2013-03-22 00:46:00,49.7,7.3,29.44,West,270,1.8,4.9,18,0.00,,,0.00,WUHU216HW,2013-03-22 06:46:00,
2013-03-22 00:47:00,49.7,7.3,29.44,WSW,248,0.4,4.9,18,0.00,,,0.00,WUHU216HW,2013-03-22 06:47:00,
2013-03-22 00:50:00,49.7,7.3,29.44,WSW,248,1.3,2.5,18,0.00,,,0.00,WUHU216HW,2013-03-22 06:50:00,
2013-03-22 00:51:00,49.5,7.1,29.44,North,0,1.3,2.5,18,0.00,,,0.00,WUHU216HW,2013-03-22 06:51:00,
2013-03-22 00:52:00,49.5,7.1,29.44,NW,315,2.5,2.5,18,0.00,,,0.00,WUHU216HW,2013-03-22 06:52:00,
2013-03-22 00:55:00,49.3,7.0,29.44,NNW,338,2.2,3.6,18,0.00,,,0.00,WUHU216HW,2013-03-22 06:55:00,
2013-03-22 00:56:00,49.1,6.9,29.44,WNW,293,2.9,3.6,18,0.00,,,0.00,WUHU216HW,2013-03-22 06:56:00,
2013-03-22 00:57:00,49.1,6.9,29.44,NNE,23,1.1,3.6,18,0.00,,,0.00,WUHU216HW,2013-03-22 06:57:00,
2013-03-22 01:00:00,48.8,6.5,29.44,NNE,23,0.9,3.6,18,0.00,,,0.00,WUHU216HW,2013-03-22 07:00:00,
2013-03-22 01:02:00,48.8,6.5,29.44,NNE,23,2.5,3.6,18,0.00,,,0.00,WUHU216HW,2013-03-22 07:02:00,
2013-03-22 01:03:00,48.6,6.4,29.44,NW,315,2.9,3.6,18,0.00,,,0.00,WUHU216HW,2013-03-22 07:03:00,
2013-03-22 01:05:00,48.6,6.4,29.44,NNW,338,3.1,3.4,18,0.00,,,0.00,WUHU216HW,2013-03-22 07:05:00,
2013-03-22 01:07:00,48.6,6.4,29.44,NW,315,2.7,3.4,18,0.00,,,0.00,WUHU216HW,2013-03-22 07:07:00,
2013-03-22 01:08:00,48.4,6.2,29.44,NNW,338,1.6,3.8,18,0.00,,,0.00,WUHU216HW,2013-03-22 07:08:00,
2013-03-22 01:10:00,48.4,6.2,29.44,North,0,1.1,3.8,18,0.00,,,0.00,WUHU216HW,2013-03-22 07:10:00,
2013-03-22 01:11:00,48.4,6.2,29.44,North,0,1.1,3.8,18,0.00,,,0.00,WUHU216HW,2013-03-22 07:11:00,
2013-03-22 01:12:00,48.4,6.2,29.44,North,0,0.9,4.0,18,0.00,,,0.00,WUHU216HW,2013-03-22 07:12:00,
2013-03-22 01:13:00,48.4,6.2,29.44,North,0,2.5,4.0,18,0.00,,,0.00,WUHU216HW,2013-03-22 07:13:00,
2013-03-22 01:15:00,48.2,6.0,29.44,NNW,338,1.8,4.0,18,0.00,,,0.00,WUHU216HW,2013-03-22 07:15:00,
2013-03-22 01:17:00,48.2,6.0,29.44,WNW,293,1.1,4.0,18,0.00,,,0.00,WUHU216HW,2013-03-22 07:17:00,
2013-03-22 01:19:00,48.2,6.0,29.44,ESE,113,2.0,4.0,18,0.00,,,0.00,WUHU216HW,2013-03-22 07:19:00,
2013-03-22 01:20:00,48.2,6.0,29.44,North,0,1.1,4.0,18,0.00,,,0.00,WUHU216HW,2013-03-22 07:20:00,
2013-03-22 01:22:00,48.2,6.0,29.44,North,0,3.1,4.0,18,0.00,,,0.00,WUHU216HW,2013-03-22 07:22:00,
2013-03-22 01:24:00,48.1,6.0,29.44,North,0,1.1,4.0,18,0.00,,,0.00,WUHU216HW,2013-03-22 07:24:00,
2013-03-22 01:26:00,48.1,6.0,29.44,NNW,338,0.0,3.1,18,0.00,,,0.00,WUHU216HW,2013-03-22 07:26:00,
2013-03-22 01:27:00,48.1,6.0,29.44,North,0,0.4,3.1,18,0.00,,,0.00,WUHU216HW,2013-03-22 07:27:00,
2013-03-22 01:29:00,48.1,6.0,29.44,NNE,23,0.2,3.1,18,0.00,,,0.00,WUHU216HW,2013-03-22 07:29:00,
2013-03-22 01:32:00,48.2,6.0,29.45,NNE,23,0.9,3.1,18,0.00,,,0.00,WUHU216HW,2013-03-22 07:32:00,
2013-03-22 01:33:00,48.2,6.0,29.45,ESE,113,2.2,2.2,18,0.00,,,0.00,WUHU216HW,2013-03-22 07:33:00,
2013-03-22 01:34:00,48.2,6.0,29.45,SSE,158,2.0,2.5,18,0.00,,,0.00,WUHU216HW,2013-03-22 07:34:00,
2013-03-22 01:37:00,48.2,6.0,29.45,SSW,203,1.8,2.5,18,0.00,,,0.00,WUHU216HW,2013-03-22 07:37:00,
2013-03-22 01:38:00,48.2,6.0,29.45,SSE,158,0.2,3.4,18,0.00,,,0.00,WUHU216HW,2013-03-22 07:38:00,
2013-03-22 01:39:00,48.2,6.0,29.45,SSE,158,0.2,3.4,18,0.00,,,0.00,WUHU216HW,2013-03-22 07:39:00,
2013-03-22 01:42:00,48.2,6.0,29.45,ESE,113,0.0,3.4,18,0.00,,,0.00,WUHU216HW,2013-03-22 07:42:00,
2013-03-22 01:43:00,48.2,6.0,29.45,North,0,0.4,3.4,18,0.00,,,0.00,WUHU216HW,2013-03-22 07:43:00,
2013-03-22 01:45:00,48.2,6.0,29.45,NW,315,0.9,3.4,18,0.00,,,0.00,WUHU216HW,2013-03-22 07:45:00,
2013-03-22 01:47:00,48.4,6.2,29.45,West,270,2.0,2.2,18,0.00,,,0.00,WUHU216HW,2013-03-22 07:47:00,
2013-03-22 01:48:00,48.4,6.2,29.45,NW,315,1.6,2.2,18,0.00,,,0.00,WUHU216HW,2013-03-22 07:48:00,
2013-03-22 01:49:00,48.4,6.2,29.46,WNW,293,1.3,2.0,18,0.00,,,0.00,WUHU216HW,2013-03-22 07:49:00,
2013-03-22 01:50:00,48.4,6.2,29.46,WNW,293,1.8,2.7,18,0.00,,,0.00,WUHU216HW,2013-03-22 07:50:00,
2013-03-22 01:52:00,48.6,6.4,29.45,West,270,0.9,2.7,18,0.00,,,0.00,WUHU216HW,2013-03-22 07:52:00,
2013-03-22 01:53:00,48.6,6.4,29.45,West,270,1.1,2.7,18,0.00,,,0.00,WUHU216HW,2013-03-22 07:53:00,
2013-03-22 01:54:00,48.6,6.4,29.45,WNW,293,1.1,2.7,18,0.00,,,0.00,WUHU216HW,2013-03-22 07:54:00,
2013-03-22 01:55:00,48.6,6.4,29.45,NW,315,0.2,2.7,18,0.00,,,0.00,WUHU216HW,2013-03-22 07:55:00,
2013-03-22 01:57:00,48.6,6.4,29.45,WNW,293,0.9,2.7,18,0.00,,,0.00,WUHU216HW,2013-03-22 07:57:00,
2013-03-22 01:58:00,48.6,6.4,29.45,WSW,248,0.4,2.7,18,0.00,,,0.00,WUHU216HW,2013-03-22 07:58:00,
2013-03-22 01:59:00,48.6,6.4,29.45,NNW,338,2.5,2.7,18,0.00,,,0.00,WUHU216HW,2013-03-22 07:59:00,
2013-03-22 02:00:00,48.4,6.2,29.45,North,0,2.0,2.7,18,0.00,,,0.00,WUHU216HW,2013-03-22 08:00:00,
2013-03-22 02:03:00,48.2,6.0,29.45,NNE,23,3.1,3.1,18,0.00,,,0.00,WUHU216HW,2013-03-22 08:03:00,
2013-03-22 02:04:00,48.2,6.0,29.45,North,0,1.8,3.1,18,0.00,,,0.00,WUHU216HW,2013-03-22 08:04:00,
2013-03-22 02:05:00,48.2,6.0,29.45,NNW,338,1.8,3.1,18,0.00,,,0.00,WUHU216HW,2013-03-22 08:05:00,
2013-03-22 02:08:00,48.1,6.0,29.45,NNW,338,2.0,3.1,18,0.00,,,0.00,WUHU216HW,2013-03-22 08:08:00,
2013-03-22 02:10:00,48.1,6.0,29.45,NNW,338,1.8,3.1,18,0.00,,,0.00,WUHU216HW,2013-03-22 08:10:00,
2013-03-22 02:13:00,48.1,6.0,29.45,NNW,338,2.5,3.4,18,0.00,,,0.00,WUHU216HW,2013-03-22 08:13:00,
2013-03-22 02:15:00,48.1,6.0,29.45,NNW,338,2.2,3.4,18,0.00,,,0.00,WUHU216HW,2013-03-22 08:15:00,
2013-03-22 02:18:00,47.9,5.8,29.45,North,0,1.8,3.4,18,0.00,,,0.00,WUHU216HW,2013-03-22 08:18:00,
2013-03-22 02:20:00,47.9,5.8,29.45,North,0,2.0,3.4,18,0.00,,,0.00,WUHU216HW,2013-03-22 08:20:00,
2013-03-22 02:21:00,47.9,5.8,29.45,NNE,23,1.8,3.4,18,0.00,,,0.00,WUHU216HW,2013-03-22 08:21:00,
2013-03-22 02:23:00,47.9,5.8,29.45,NNE,23,5.6,5.6,18,0.00,,,0.00,WUHU216HW,2013-03-22 08:23:00,
2013-03-22 02:24:00,47.9,5.8,29.45,North,0,3.8,5.6,18,0.00,,,0.00,WUHU216HW,2013-03-22 08:24:00,
2013-03-22 02:25:00,47.9,5.8,29.45,North,0,3.8,5.6,18,0.00,,,0.00,WUHU216HW,2013-03-22 08:25:00,
2013-03-22 02:26:00,47.9,5.8,29.44,North,0,4.5,5.6,18,0.00,,,0.00,WUHU216HW,2013-03-22 08:26:00,
2013-03-22 02:29:00,47.7,5.6,29.45,North,0,4.9,5.6,18,0.00,,,0.00,WUHU216HW,2013-03-22 08:29:00,
2013-03-22 02:30:00,47.7,5.6,29.45,NNE,23,3.6,5.6,18,0.00,,,0.00,WUHU216HW,2013-03-22 08:30:00,
2013-03-22 02:31:00,47.7,5.6,29.45,NNE,23,3.4,5.6,18,0.00,,,0.00,WUHU216HW,2013-03-22 08:31:00,
2013-03-22 02:34:00,47.5,5.5,29.45,NE,45,1.1,5.6,18,0.00,,,0.00,WUHU216HW,2013-03-22 08:34:00,
2013-03-22 02:35:00,47.5,5.5,29.45,North,0,2.0,5.6,18,0.00,,,0.00,WUHU216HW,2013-03-22 08:35:00,
2013-03-22 02:37:00,47.3,5.3,29.45,North,0,3.4,5.4,18,0.00,,,0.00,WUHU216HW,2013-03-22 08:37:00,
2013-03-22 02:39:00,47.2,5.2,29.45,North,0,4.5,5.1,18,0.00,,,0.00,WUHU216HW,2013-03-22 08:39:00,
2013-03-22 02:40:00,47.2,5.2,29.45,North,0,1.8,5.1,18,0.00,,,0.00,WUHU216HW,2013-03-22 08:40:00,
2013-03-22 02:42:00,47.2,6.7,29.45,North,0,2.7,5.1,19,0.00,,,0.00,WUHU216HW,2013-03-22 08:42:00,
2013-03-22 02:44:00,47.0,5.0,29.45,WNW,293,2.5,5.1,18,0.00,,,0.00,WUHU216HW,2013-03-22 08:44:00,
2013-03-22 02:45:00,47.0,6.5,29.45,West,270,2.0,5.1,19,0.00,,,0.00,WUHU216HW,2013-03-22 08:45:00,
2013-03-22 02:47:00,46.8,7.8,29.45,NW,315,0.7,4.5,20,0.00,,,0.00,WUHU216HW,2013-03-22 08:47:00,
2013-03-22 02:49:00,46.6,7.8,29.45,NNW,338,0.9,3.8,20,0.00,,,0.00,WUHU216HW,2013-03-22 08:49:00,
2013-03-22 02:50:00,46.6,7.8,29.45,NNW,338,0.9,3.8,20,0.00,,,0.00,WUHU216HW,2013-03-22 08:50:00,
2013-03-22 02:52:00,46.4,7.6,29.45,NW,315,1.3,3.8,20,0.00,,,0.00,WUHU216HW,2013-03-22 08:52:00,
2013-03-22 02:54:00,46.4,7.6,29.45,WNW,293,1.1,2.5,20,0.00,,,0.00,WUHU216HW,2013-03-22 08:54:00,
2013-03-22 02:55:00,46.4,7.6,29.45,West,270,0.7,2.5,20,0.00,,,0.00,WUHU216HW,2013-03-22 08:55:00,
2013-03-22 02:57:00,46.6,7.8,29.45,NW,315,1.3,2.0,20,0.00,,,0.00,WUHU216HW,2013-03-22 08:57:00,
2013-03-22 02:59:00,46.6,7.8,29.45,West,270,1.3,2.2,20,0.00,,,0.00,WUHU216HW,2013-03-22 08:59:00,
2013-03-22 03:00:00,46.6,7.8,29.45,WNW,293,1.1,2.2,20,0.00,,,0.00,WUHU216HW,2013-03-22 09:00:00,
2013-03-22 03:02:00,46.4,7.6,29.45,WNW,293,0.7,2.2,20,0.00,,,0.00,WUHU216HW,2013-03-22 09:02:00,
2013-03-22 03:04:00,46.4,7.6,29.45,NW,315,1.6,2.5,20,0.00,,,0.00,WUHU216HW,2013-03-22 09:04:00,
2013-03-22 03:05:00,46.4,7.6,29.45,NW,315,0.4,2.5,20,0.00,,,0.00,WUHU216HW,2013-03-22 09:05:00,
2013-03-22 03:06:00,46.4,7.6,29.45,NNW,338,1.6,2.5,20,0.00,,,0.00,WUHU216HW,2013-03-22 09:06:00,
2013-03-22 03:08:00,46.4,7.6,29.45,NW,315,0.9,2.5,20,0.00,,,0.00,WUHU216HW,2013-03-22 09:08:00,
2013-03-22 03:10:00,46.4,7.6,29.44,NNW,338,1.1,3.4,20,0.00,,,0.00,WUHU216HW,2013-03-22 09:10:00,
2013-03-22 03:11:00,46.4,7.6,29.44,WNW,293,1.1,3.4,20,0.00,,,0.00,WUHU216HW,2013-03-22 09:11:00,
2013-03-22 03:13:00,46.4,7.6,29.44,WNW,293,1.8,3.4,20,0.00,,,0.00,WUHU216HW,2013-03-22 09:13:00,
2013-03-22 03:15:00,46.3,7.4,29.44,WNW,293,3.1,3.8,20,0.00,,,0.00,WUHU216HW,2013-03-22 09:15:00,
2013-03-22 03:16:00,46.3,7.4,29.44,WNW,293,2.5,3.8,20,0.00,,,0.00,WUHU216HW,2013-03-22 09:16:00,
2013-03-22 03:18:00,46.1,7.3,29.45,West,270,2.2,4.0,20,0.00,,,0.00,WUHU216HW,2013-03-22 09:18:00,
2013-03-22 03:20:00,46.3,7.4,29.44,WNW,293,3.4,4.0,20,0.00,,,0.00,WUHU216HW,2013-03-22 09:20:00,
2013-03-22 03:22:00,46.3,7.4,29.45,West,270,2.0,4.0,20,0.00,,,0.00,WUHU216HW,2013-03-22 09:22:00,
2013-03-22 03:23:00,46.1,7.3,29.44,WNW,293,2.0,4.0,20,0.00,,,0.00,WUHU216HW,2013-03-22 09:23:00,
2013-03-22 03:25:00,46.3,7.4,29.45,West,270,2.5,4.0,20,0.00,,,0.00,WUHU216HW,2013-03-22 09:25:00,
2013-03-22 03:26:00,46.3,7.4,29.44,West,270,1.1,4.0,20,0.00,,,0.00,WUHU216HW,2013-03-22 09:26:00,
2013-03-22 03:27:00,46.3,7.4,29.44,WNW,293,1.8,3.4,20,0.00,,,0.00,WUHU216HW,2013-03-22 09:27:00,
2013-03-22 03:28:00,46.3,7.4,29.44,NW,315,2.5,3.4,20,0.00,,,0.00,WUHU216HW,2013-03-22 09:28:00,
2013-03-22 03:30:00,46.3,7.4,29.45,West,270,2.0,3.4,20,0.00,,,0.00,WUHU216HW,2013-03-22 09:30:00,
2013-03-22 03:31:00,46.3,7.4,29.44,West,270,1.8,3.1,20,0.00,,,0.00,WUHU216HW,2013-03-22 09:31:00,
2013-03-22 03:32:00,46.3,7.4,29.44,NW,315,0.0,3.1,20,0.00,,,0.00,WUHU216HW,2013-03-22 09:32:00,
2013-03-22 03:33:00,46.3,7.4,29.45,NW,315,0.0,3.1,20,0.00,,,0.00,WUHU216HW,2013-03-22 09:33:00,
2013-03-22 03:35:00,46.3,7.4,29.44,NW,315,0.0,2.5,20,0.00,,,0.00,WUHU216HW,2013-03-22 09:35:00,
2013-03-22 03:36:00,46.4,7.6,29.44,NW,315,0.0,2.5,20,0.00,,,0.00,WUHU216HW,2013-03-22 09:36:00,
2013-03-22 03:37:00,46.3,7.4,29.44,NW,315,0.0,2.5,20,0.00,,,0.00,WUHU216HW,2013-03-22 09:37:00,
2013-03-22 03:38:00,46.3,7.4,29.44,NNW,338,0.0,2.2,20,0.00,,,0.00,WUHU216HW,2013-03-22 09:38:00,
2013-03-22 03:41:00,46.4,7.6,29.44,North,0,0.7,1.8,20,0.00,,,0.00,WUHU216HW,2013-03-22 09:41:00,
2013-03-22 03:42:00,46.3,7.4,29.44,ENE,68,1.8,1.8,20,0.00,,,0.00,WUHU216HW,2013-03-22 09:42:00,
2013-03-22 03:43:00,46.4,7.6,29.44,ENE,68,0.9,1.8,20,0.00,,,0.00,WUHU216HW,2013-03-22 09:43:00,
2013-03-22 03:46:00,46.3,7.4,29.44,ENE,68,0.0,1.8,20,0.00,,,0.00,WUHU216HW,2013-03-22 09:46:00,
2013-03-22 03:47:00,46.3,7.4,29.44,ENE,68,0.0,1.8,20,0.00,,,0.00,WUHU216HW,2013-03-22 09:47:00,
2013-03-22 03:48:00,46.1,7.3,29.44,ENE,68,0.0,1.8,20,0.00,,,0.00,WUHU216HW,2013-03-22 09:48:00,
2013-03-22 03:51:00,46.1,7.3,29.44,ENE,68,0.0,1.8,20,0.00,,,0.00,WUHU216HW,2013-03-22 09:51:00,
2013-03-22 03:52:00,46.1,7.3,29.44,ENE,68,0.0,1.8,20,0.00,,,0.00,WUHU216HW,2013-03-22 09:52:00,
2013-03-22 03:53:00,46.1,7.3,29.44,ENE,68,0.0,0.7,20,0.00,,,0.00,WUHU216HW,2013-03-22 09:53:00,
2013-03-22 03:57:00,45.9,7.1,29.44,ENE,68,0.0,0.0,20,0.00,,,0.00,WUHU216HW,2013-03-22 09:57:00,
2013-03-22 03:58:00,45.9,7.1,29.44,ENE,68,0.0,0.0,20,0.00,,,0.00,WUHU216HW,2013-03-22 09:58:00,
2013-03-22 03:59:00,45.9,7.1,29.44,ENE,68,0.0,0.0,20,0.00,,,0.00,WUHU216HW,2013-03-22 09:59:00,
2013-03-22 04:02:00,45.7,7.0,29.44,NE,45,0.0,0.2,20,0.00,,,0.00,WUHU216HW,2013-03-22 10:02:00,
2013-03-22 04:03:00,45.7,7.0,29.44,NE,45,0.2,0.2,20,0.00,,,0.00,WUHU216HW,2013-03-22 10:03:00,
2013-03-22 04:04:00,45.7,7.0,29.44,NNW,338,0.7,0.7,20,0.00,,,0.00,WUHU216HW,2013-03-22 10:04:00,
2013-03-22 04:07:00,45.7,7.9,29.44,WNW,293,0.4,1.1,21,0.00,,,0.00,WUHU216HW,2013-03-22 10:07:00,
2013-03-22 04:08:00,45.7,7.0,29.44,WNW,293,0.7,1.1,20,0.00,,,0.00,WUHU216HW,2013-03-22 10:08:00,
2013-03-22 04:09:00,45.7,7.0,29.44,WNW,293,0.4,1.1,20,0.00,,,0.00,WUHU216HW,2013-03-22 10:09:00,
2013-03-22 04:12:00,45.5,6.8,29.44,WNW,293,0.2,1.1,20,0.00,,,0.00,WUHU216HW,2013-03-22 10:12:00,
2013-03-22 04:13:00,45.5,7.7,29.44,NW,315,0.2,1.1,21,0.00,,,0.00,WUHU216HW,2013-03-22 10:13:00,
2013-03-22 04:14:00,45.5,7.7,29.44,WNW,293,0.4,1.1,21,0.00,,,0.00,WUHU216HW,2013-03-22 10:14:00,
2013-03-22 04:17:00,45.5,7.7,29.44,WNW,293,0.0,1.1,21,0.00,,,0.00,WUHU216HW,2013-03-22 10:17:00,
2013-03-22 04:18:00,45.5,7.7,29.44,WNW,293,0.0,1.1,21,0.00,,,0.00,WUHU216HW,2013-03-22 10:18:00,
2013-03-22 04:19:00,45.5,7.7,29.44,West,270,0.0,0.9,21,0.00,,,0.00,WUHU216HW,2013-03-22 10:19:00,
2013-03-22 04:22:00,45.4,7.6,29.44,NNW,338,0.2,1.1,21,0.00,,,0.00,WUHU216HW,2013-03-22 10:22:00,
2013-03-22 04:23:00,45.4,7.6,29.44,WNW,293,0.0,1.1,21,0.00,,,0.00,WUHU216HW,2013-03-22 10:23:00,
2013-03-22 04:24:00,45.2,7.5,29.44,NNW,338,1.6,1.6,21,0.00,,,0.00,WUHU216HW,2013-03-22 10:24:00,
2013-03-22 04:27:00,45.0,7.3,29.44,WNW,293,0.4,1.6,21,0.00,,,0.00,WUHU216HW,2013-03-22 10:27:00,
2013-03-22 04:28:00,45.0,7.3,29.44,WNW,293,1.1,1.6,21,0.00,,,0.00,WUHU216HW,2013-03-22 10:28:00,
2013-03-22 04:30:00,45.0,7.3,29.44,NNW,338,2.5,2.5,21,0.00,,,0.00,WUHU216HW,2013-03-22 10:30:00,
2013-03-22 04:32:00,44.8,7.2,29.44,WNW,293,2.5,2.5,21,0.00,,,0.00,WUHU216HW,2013-03-22 10:32:00,
2013-03-22 04:33:00,44.8,7.2,29.44,NW,315,2.0,3.4,21,0.00,,,0.00,WUHU216HW,2013-03-22 10:33:00,
2013-03-22 04:34:00,44.8,7.2,29.44,WNW,293,3.1,3.4,21,0.00,,,0.00,WUHU216HW,2013-03-22 10:34:00,
2013-03-22 04:35:00,44.8,7.2,29.44,WNW,293,3.4,3.4,21,0.00,,,0.00,WUHU216HW,2013-03-22 10:35:00,
2013-03-22 04:37:00,44.6,7.0,29.44,West,270,2.2,3.8,21,0.00,,,0.00,WUHU216HW,2013-03-22 10:37:00,
2013-03-22 04:38:00,44.6,7.0,29.44,West,270,2.5,3.8,21,0.00,,,0.00,WUHU216HW,2013-03-22 10:38:00,
2013-03-22 04:39:00,44.5,6.8,29.44,West,270,1.8,3.8,21,0.00,,,0.00,WUHU216HW,2013-03-22 10:39:00,
2013-03-22 04:40:00,44.5,6.8,29.44,West,270,1.8,3.8,21,0.00,,,0.00,WUHU216HW,2013-03-22 10:40:00,
2013-03-22 04:42:00,44.3,6.7,29.44,NNW,338,1.1,3.8,21,0.00,,,0.00,WUHU216HW,2013-03-22 10:42:00,
2013-03-22 04:43:00,44.3,6.7,29.44,WNW,293,0.9,3.8,21,0.00,,,0.00,WUHU216HW,2013-03-22 10:43:00,
2013-03-22 04:44:00,44.3,6.7,29.44,West,270,1.8,3.8,21,0.00,,,0.00,WUHU216HW,2013-03-22 10:44:00,
2013-03-22 04:45:00,44.3,6.7,29.44,West,270,0.4,3.8,21,0.00,,,0.00,WUHU216HW,2013-03-22 10:45:00,
2013-03-22 04:47:00,44.3,6.7,29.44,SE,135,0.0,2.7,21,0.00,,,0.00,WUHU216HW,2013-03-22 10:47:00,
2013-03-22 04:49:00,44.3,6.7,29.44,SE,135,0.0,2.2,21,0.00,,,0.00,WUHU216HW,2013-03-22 10:49:00,
2013-03-22 04:50:00,44.3,6.7,29.44,SE,135,0.0,1.8,21,0.00,,,0.00,WUHU216HW,2013-03-22 10:50:00,
2013-03-22 04:52:00,44.1,6.6,29.44,West,270,2.7,2.7,21,0.00,,,0.00,WUHU216HW,2013-03-22 10:52:00,
2013-03-22 04:54:00,44.1,6.6,29.44,WNW,293,0.4,2.9,21,0.00,,,0.00,WUHU216HW,2013-03-22 10:54:00,
2013-03-22 04:55:00,44.1,6.6,29.44,WNW,293,0.4,2.9,21,0.00,,,0.00,WUHU216HW,2013-03-22 10:55:00,
2013-03-22 04:57:00,43.9,6.4,29.44,West,270,0.2,2.9,21,0.00,,,0.00,WUHU216HW,2013-03-22 10:57:00,
2013-03-22 04:59:00,43.9,6.4,29.44,NNW,338,0.4,2.9,21,0.00,,,0.00,WUHU216HW,2013-03-22 10:59:00,
2013-03-22 05:00:00,43.7,6.2,29.44,West,270,0.9,2.9,21,0.00,,,0.00,WUHU216HW,2013-03-22 11:00:00,
2013-03-22 05:03:00,43.7,6.2,29.44,NW,315,1.8,2.9,21,0.00,,,0.00,WUHU216HW,2013-03-22 11:03:00,
2013-03-22 05:04:00,43.7,6.2,29.44,WNW,293,0.9,2.9,21,0.00,,,0.00,WUHU216HW,2013-03-22 11:04:00,
2013-03-22 05:05:00,43.6,6.0,29.44,NNW,338,0.7,2.9,21,0.00,,,0.00,WUHU216HW,2013-03-22 11:05:00,
2013-03-22 05:08:00,43.6,6.0,29.44,WNW,293,2.0,2.9,21,0.00,,,0.00,WUHU216HW,2013-03-22 11:08:00,
2013-03-22 05:09:00,43.6,6.0,29.44,WNW,293,2.5,2.9,21,0.00,,,0.00,WUHU216HW,2013-03-22 11:09:00,
2013-03-22 05:10:00,43.6,6.0,29.44,NNW,338,2.7,2.9,21,0.00,,,0.00,WUHU216HW,2013-03-22 11:10:00,
2013-03-22 05:11:00,43.6,6.0,29.44,West,270,1.6,2.9,21,0.00,,,0.00,WUHU216HW,2013-03-22 11:11:00,
2013-03-22 05:13:00,43.6,6.9,29.44,NW,315,0.4,2.7,22,0.00,,,0.00,WUHU216HW,2013-03-22 11:13:00,
2013-03-22 05:14:00,43.6,6.9,29.44,WNW,293,1.3,2.7,22,0.00,,,0.00,WUHU216HW,2013-03-22 11:14:00,
2013-03-22 05:15:00,43.6,6.9,29.44,WNW,293,3.1,3.1,22,0.00,,,0.00,WUHU216HW,2013-03-22 11:15:00,
2013-03-22 05:16:00,43.4,6.8,29.44,NNW,338,1.8,3.4,22,0.00,,,0.00,WUHU216HW,2013-03-22 11:16:00,
2013-03-22 05:18:00,43.6,6.9,29.44,WNW,293,2.7,3.4,22,0.00,,,0.00,WUHU216HW,2013-03-22 11:18:00,
2013-03-22 05:19:00,43.4,6.8,29.44,WNW,293,1.3,3.4,22,0.00,,,0.00,WUHU216HW,2013-03-22 11:19:00,
2013-03-22 05:20:00,43.4,6.8,29.44,NW,315,1.1,3.4,22,0.00,,,0.00,WUHU216HW,2013-03-22 11:20:00,
2013-03-22 05:21:00,43.4,6.8,29.45,NW,315,0.7,3.4,22,0.00,,,0.00,WUHU216HW,2013-03-22 11:21:00,
2013-03-22 05:23:00,43.4,6.8,29.45,North,0,2.7,3.4,22,0.00,,,0.00,WUHU216HW,2013-03-22 11:23:00,
2013-03-22 05:24:00,43.2,6.7,29.45,WNW,293,2.5,3.4,22,0.00,,,0.00,WUHU216HW,2013-03-22 11:24:00,
2013-03-22 05:25:00,43.2,6.7,29.45,West,270,2.0,3.4,22,0.00,,,0.00,WUHU216HW,2013-03-22 11:25:00,
2013-03-22 05:26:00,43.2,6.7,29.45,West,270,2.2,2.9,22,0.00,,,0.00,WUHU216HW,2013-03-22 11:26:00,
2013-03-22 05:28:00,43.2,6.7,29.45,WNW,293,2.9,2.9,22,0.00,,,0.00,WUHU216HW,2013-03-22 11:28:00,
2013-03-22 05:29:00,43.2,6.7,29.45,West,270,2.5,2.9,22,0.00,,,0.00,WUHU216HW,2013-03-22 11:29:00,
2013-03-22 05:30:00,43.2,6.7,29.45,WNW,293,2.7,2.9,22,0.00,,,0.00,WUHU216HW,2013-03-22 11:30:00,
2013-03-22 05:32:00,43.2,6.7,29.45,West,270,1.8,2.9,22,0.00,,,0.00,WUHU216HW,2013-03-22 11:32:00,
2013-03-22 05:33:00,43.2,6.7,29.45,NNW,338,1.8,2.9,22,0.00,,,0.00,WUHU216HW,2013-03-22 11:33:00,
2013-03-22 05:34:00,43.2,6.7,29.45,WNW,293,1.3,2.9,22,0.00,,,0.00,WUHU216HW,2013-03-22 11:34:00,
2013-03-22 05:35:00,43.2,6.7,29.45,West,270,2.5,2.9,22,0.00,,,0.00,WUHU216HW,2013-03-22 11:35:00,
2013-03-22 05:37:00,43.2,6.7,29.45,WNW,293,3.4,3.4,22,0.00,,,0.00,WUHU216HW,2013-03-22 11:37:00,
2013-03-22 05:39:00,43.2,6.7,29.45,WNW,293,2.0,3.4,22,0.00,,,0.00,WUHU216HW,2013-03-22 11:39:00,
2013-03-22 05:40:00,43.0,6.5,29.45,WNW,293,2.5,3.4,22,0.00,,,0.00,WUHU216HW,2013-03-22 11:40:00,
2013-03-22 05:42:00,43.0,6.5,29.45,WNW,293,2.5,3.4,22,0.00,,,0.00,WUHU216HW,2013-03-22 11:42:00,
2013-03-22 05:44:00,43.0,6.5,29.45,WNW,293,2.9,3.4,22,0.00,,,0.00,WUHU216HW,2013-03-22 11:44:00,
2013-03-22 05:45:00,43.0,6.5,29.45,NW,315,0.2,3.4,22,0.00,,,0.00,WUHU216HW,2013-03-22 11:45:00,
2013-03-22 05:47:00,43.0,6.5,29.45,NW,315,0.4,3.4,22,0.00,,,0.00,WUHU216HW,2013-03-22 11:47:00,
2013-03-22 05:49:00,43.0,6.5,29.45,WNW,293,1.3,2.9,22,0.00,,,0.00,WUHU216HW,2013-03-22 11:49:00,
2013-03-22 05:50:00,43.0,6.5,29.45,West,270,2.5,2.9,22,0.00,,,0.00,WUHU216HW,2013-03-22 11:50:00,
2013-03-22 05:52:00,42.8,6.3,29.46,WNW,293,2.9,2.9,22,0.00,,,0.00,WUHU216HW,2013-03-22 11:52:00,
2013-03-22 05:54:00,42.8,6.3,29.45,West,270,2.7,3.4,22,0.00,,,0.00,WUHU216HW,2013-03-22 11:54:00,
2013-03-22 05:55:00,42.8,6.3,29.46,NW,315,2.9,3.4,22,0.00,,,0.00,WUHU216HW,2013-03-22 11:55:00,
2013-03-22 05:57:00,42.7,6.1,29.46,West,270,2.2,3.8,22,0.00,,,0.00,WUHU216HW,2013-03-22 11:57:00,
2013-03-22 05:59:00,42.7,7.0,29.46,WNW,293,3.4,3.8,23,0.00,,,0.00,WUHU216HW,2013-03-22 11:59:00,
2013-03-22 06:00:00,42.5,6.0,29.46,WNW,293,3.4,3.8,22,0.00,,,0.00,WUHU216HW,2013-03-22 12:00:00,
2013-03-22 06:03:00,42.5,6.9,29.46,WNW,293,1.8,3.8,23,0.00,,,0.00,WUHU216HW,2013-03-22 12:03:00,
2013-03-22 06:05:00,42.5,6.9,29.46,NW,315,2.2,3.8,23,0.00,,,0.00,WUHU216HW,2013-03-22 12:05:00,
2013-03-22 06:06:00,42.3,6.8,29.46,West,270,1.3,3.8,23,0.00,,,0.00,WUHU216HW,2013-03-22 12:06:00,
2013-03-22 06:08:00,42.3,6.8,29.46,WNW,293,3.1,3.4,23,0.00,,,0.00,WUHU216HW,2013-03-22 12:08:00,
2013-03-22 06:10:00,42.1,6.7,29.46,NNW,338,1.3,3.4,23,0.00,,,0.00,WUHU216HW,2013-03-22 12:10:00,
2013-03-22 06:11:00,42.1,6.7,29.46,NNW,338,1.1,3.4,23,0.00,,,0.00,WUHU216HW,2013-03-22 12:11:00,
2013-03-22 06:12:00,42.1,6.7,29.47,NNW,338,1.3,3.4,23,0.00,,,0.00,WUHU216HW,2013-03-22 12:12:00,
2013-03-22 06:13:00,42.1,6.7,29.47,NNW,338,2.5,3.4,23,0.00,,,0.00,WUHU216HW,2013-03-22 12:13:00,
2013-03-22 06:15:00,41.9,6.5,29.47,NW,315,0.4,3.1,23,0.00,,,0.00,WUHU216HW,2013-03-22 12:15:00,
2013-03-22 06:16:00,41.8,6.3,29.47,West,270,2.0,3.1,23,0.00,,,0.00,WUHU216HW,2013-03-22 12:16:00,
2013-03-22 06:17:00,41.8,6.3,29.47,West,270,1.1,3.1,23,0.00,,,0.00,WUHU216HW,2013-03-22 12:17:00,
2013-03-22 06:18:00,41.8,6.3,29.47,NW,315,0.4,3.1,23,0.00,,,0.00,WUHU216HW,2013-03-22 12:18:00,
2013-03-22 06:20:00,41.6,6.2,29.47,North,0,0.4,2.5,23,0.00,,,0.00,WUHU216HW,2013-03-22 12:20:00,
2013-03-22 06:22:00,41.4,6.0,29.47,NNW,338,0.2,2.5,23,0.00,,,0.00,WUHU216HW,2013-03-22 12:22:00,
2013-03-22 06:23:00,41.4,6.0,29.47,West,270,1.8,2.0,23,0.00,,,0.00,WUHU216HW,2013-03-22 12:23:00,
2013-03-22 06:26:00,41.4,6.0,29.47,WNW,293,0.4,1.8,23,0.00,,,0.00,WUHU216HW,2013-03-22 12:26:00,
2013-03-22 06:27:00,41.2,6.0,29.47,West,270,0.2,1.8,23,0.00,,,0.00,WUHU216HW,2013-03-22 12:27:00,
2013-03-22 06:28:00,41.2,6.0,29.47,West,270,2.5,2.5,23,0.00,,,0.00,WUHU216HW,2013-03-22 12:28:00,
2013-03-22 06:32:00,41.0,5.8,29.47,West,270,2.9,2.9,23,0.00,,,0.00,WUHU216HW,2013-03-22 12:32:00,
2013-03-22 06:33:00,41.0,6.7,29.47,NW,315,2.7,3.6,24,0.00,,,0.00,WUHU216HW,2013-03-22 12:33:00,
2013-03-22 06:37:00,41.0,6.7,29.47,NNW,338,3.1,4.3,24,0.00,,,0.00,WUHU216HW,2013-03-22 12:37:00,
2013-03-22 06:38:00,40.9,6.5,29.47,West,270,2.0,4.3,24,0.00,,,0.00,WUHU216HW,2013-03-22 12:38:00,
2013-03-22 06:42:00,40.9,6.5,29.47,WNW,293,2.7,4.3,24,0.00,,,0.00,WUHU216HW,2013-03-22 12:42:00,
2013-03-22 06:43:00,40.9,6.5,29.47,West,270,1.8,4.3,24,0.00,,,0.00,WUHU216HW,2013-03-22 12:43:00,
2013-03-22 06:47:00,40.9,6.5,29.47,SSE,158,1.3,3.8,24,0.00,,,0.00,WUHU216HW,2013-03-22 12:47:00,
2013-03-22 06:48:00,40.9,6.5,29.47,SW,225,0.7,3.8,24,0.00,,,0.00,WUHU216HW,2013-03-22 12:48:00,
2013-03-22 06:49:00,40.9,6.5,29.47,SW,225,0.7,3.8,24,0.00,,,0.00,WUHU216HW,2013-03-22 12:49:00,
2013-03-22 06:52:00,40.7,6.3,29.47,SE,135,0.0,2.7,24,0.00,,,0.00,WUHU216HW,2013-03-22 12:52:00,
2013-03-22 06:53:00,40.7,6.3,29.47,SE,135,0.0,2.2,24,0.00,,,0.00,WUHU216HW,2013-03-22 12:53:00,
2013-03-22 06:54:00,40.7,6.3,29.47,SE,135,0.0,2.2,24,0.00,,,0.00,WUHU216HW,2013-03-22 12:54:00,
2013-03-22 06:57:00,40.7,6.3,29.47,SW,225,0.2,1.3,24,0.00,,,0.00,WUHU216HW,2013-03-22 12:57:00,
2013-03-22 06:58:00,40.7,6.3,29.47,West,270,0.4,0.7,24,0.00,,,0.00,WUHU216HW,2013-03-22 12:58:00,
2013-03-22 06:59:00,40.7,6.3,29.47,West,270,0.4,0.9,24,0.00,,,0.00,WUHU216HW,2013-03-22 12:59:00,
2013-03-22 07:02:00,40.7,6.3,29.48,NNW,338,0.4,2.0,24,0.00,,,0.00,WUHU216HW,2013-03-22 13:02:00,
2013-03-22 07:03:00,40.7,6.3,29.48,NNW,338,0.4,2.0,24,0.00,,,0.00,WUHU216HW,2013-03-22 13:03:00,
2013-03-22 07:04:00,40.7,6.3,29.48,NW,315,0.0,2.0,24,0.00,,,0.00,WUHU216HW,2013-03-22 13:04:00,
2013-03-22 07:07:00,40.5,6.2,29.48,NNW,338,1.8,2.0,24,0.00,,,0.00,WUHU216HW,2013-03-22 13:07:00,
2013-03-22 07:08:00,40.5,6.2,29.48,NNW,338,1.8,2.0,24,0.00,,,0.00,WUHU216HW,2013-03-22 13:08:00,
2013-03-22 07:09:00,40.5,6.2,29.48,NW,315,0.9,2.0,24,0.00,,,0.00,WUHU216HW,2013-03-22 13:09:00,
2013-03-22 07:12:00,40.3,6.0,29.48,NNW,338,0.7,1.8,24,0.00,,,0.00,WUHU216HW,2013-03-22 13:12:00,
2013-03-22 07:13:00,40.3,6.0,29.48,NNW,338,0.0,1.8,24,0.00,,,0.00,WUHU216HW,2013-03-22 13:13:00,
2013-03-22 07:14:00,40.3,6.0,29.48,NNW,338,0.2,1.8,24,0.00,,,0.00,WUHU216HW,2013-03-22 13:14:00,
2013-03-22 07:17:00,40.3,6.0,29.48,WNW,293,1.8,1.8,24,0.00,,,0.00,WUHU216HW,2013-03-22 13:17:00,
2013-03-22 07:18:00,40.3,6.0,29.48,NW,315,1.1,1.8,24,0.00,,,0.00,WUHU216HW,2013-03-22 13:18:00,
2013-03-22 07:19:00,40.3,6.0,29.48,NW,315,0.4,1.8,24,0.00,,,0.00,WUHU216HW,2013-03-22 13:19:00,
2013-03-22 07:23:00,40.1,5.9,29.48,WNW,293,0.4,1.8,24,0.00,,,0.00,WUHU216HW,2013-03-22 13:23:00,
2013-03-22 07:24:00,40.1,6.8,29.48,NW,315,0.4,1.8,25,0.00,,,0.00,WUHU216HW,2013-03-22 13:24:00,
2013-03-22 07:28:00,40.3,6.9,29.48,West,270,0.7,1.1,25,0.00,,,0.00,WUHU216HW,2013-03-22 13:28:00,
2013-03-22 07:29:00,40.3,6.9,29.48,WNW,293,0.4,1.1,25,0.00,,,0.00,WUHU216HW,2013-03-22 13:29:00,
2013-03-22 07:30:00,40.5,7.1,29.48,WSW,248,0.2,1.1,25,0.00,,,0.00,WUHU216HW,2013-03-22 13:30:00,
2013-03-22 07:33:00,40.7,7.2,29.48,SE,135,0.2,1.1,25,0.00,,,0.00,WUHU216HW,2013-03-22 13:33:00,
2013-03-22 07:34:00,40.9,7.4,29.48,SW,225,0.0,1.1,25,0.00,,,0.00,WUHU216HW,2013-03-22 13:34:00,
2013-03-22 07:35:00,41.0,7.6,29.48,West,270,0.2,1.1,25,0.00,,,0.00,WUHU216HW,2013-03-22 13:35:00,
2013-03-22 07:38:00,41.4,7.8,29.48,West,270,0.0,0.9,25,0.00,,,0.00,WUHU216HW,2013-03-22 13:38:00,
2013-03-22 07:39:00,41.6,8.0,29.48,West,270,0.0,0.9,25,0.00,,,0.00,WUHU216HW,2013-03-22 13:39:00,
2013-03-22 07:40:00,41.8,8.1,29.48,West,270,0.0,0.9,25,0.00,,,0.00,WUHU216HW,2013-03-22 13:40:00,
2013-03-22 07:43:00,42.5,8.7,29.48,NW,315,0.0,0.7,25,0.00,,,0.00,WUHU216HW,2013-03-22 13:43:00,
2013-03-22 07:44:00,42.8,9.0,29.48,NW,315,0.0,0.7,25,0.00,,,0.00,WUHU216HW,2013-03-22 13:44:00,
2013-03-22 07:45:00,42.8,9.0,29.48,NW,315,0.0,0.7,25,0.00,,,0.00,WUHU216HW,2013-03-22 13:45:00,
2013-03-22 07:48:00,43.7,9.8,29.48,NW,315,0.0,1.3,25,0.00,,,0.00,WUHU216HW,2013-03-22 13:48:00,
2013-03-22 07:49:00,43.9,10.0,29.48,NW,315,0.0,1.3,25,0.00,,,0.00,WUHU216HW,2013-03-22 13:49:00,
2013-03-22 07:50:00,44.3,10.3,29.49,NNE,23,0.7,1.3,25,0.00,,,0.00,WUHU216HW,2013-03-22 13:50:00,
2013-03-22 07:53:00,45.0,10.0,29.49,NNE,23,0.0,1.3,24,0.00,,,0.00,WUHU216HW,2013-03-22 13:53:00,
2013-03-22 07:54:00,45.0,10.0,29.49,NNE,23,0.0,1.3,24,0.00,,,0.00,WUHU216HW,2013-03-22 13:54:00,
2013-03-22 07:55:00,45.4,10.4,29.49,NNE,23,0.0,1.3,24,0.00,,,0.00,WUHU216HW,2013-03-22 13:55:00,
2013-03-22 07:58:00,45.9,10.8,29.49,NNE,23,0.0,0.9,24,0.00,,,0.00,WUHU216HW,2013-03-22 13:58:00,
2013-03-22 07:59:00,46.1,10.9,29.49,NNE,23,0.0,0.9,24,0.00,,,0.00,WUHU216HW,2013-03-22 13:59:00,
2013-03-22 08:00:00,46.3,10.2,29.49,NNE,23,0.0,0.9,23,0.00,,,0.00,WUHU216HW,2013-03-22 14:00:00,
2013-03-22 08:04:00,47.0,10.8,29.49,NNE,23,0.0,0.2,23,0.00,,,0.00,WUHU216HW,2013-03-22 14:04:00,
2013-03-22 08:05:00,47.2,10.9,29.49,West,270,0.0,0.4,23,0.00,,,0.00,WUHU216HW,2013-03-22 14:05:00,
2013-03-22 08:06:00,47.5,11.3,29.49,West,270,0.0,0.4,23,0.00,,,0.00,WUHU216HW,2013-03-22 14:06:00,
2013-03-22 08:09:00,48.1,11.7,29.49,North,0,0.9,1.1,23,0.00,,,0.00,WUHU216HW,2013-03-22 14:09:00,
2013-03-22 08:10:00,48.4,12.0,29.49,NNW,338,1.1,1.1,23,0.00,,,0.00,WUHU216HW,2013-03-22 14:10:00,
2013-03-22 08:11:00,48.8,12.2,29.49,North,0,1.1,1.1,23,0.00,,,0.00,WUHU216HW,2013-03-22 14:11:00,
2013-03-22 08:14:00,49.3,12.8,29.49,North,0,0.4,1.1,23,0.00,,,0.00,WUHU216HW,2013-03-22 14:14:00,
2013-03-22 08:15:00,49.7,13.1,29.49,North,0,0.0,1.1,23,0.00,,,0.00,WUHU216HW,2013-03-22 14:15:00,
2013-03-22 08:17:00,50.4,12.8,29.49,North,0,0.2,1.1,22,0.00,,,0.00,WUHU216HW,2013-03-22 14:17:00,
2013-03-22 08:19:00,51.1,13.3,29.49,North,0,0.0,1.1,22,0.00,,,0.00,WUHU216HW,2013-03-22 14:19:00,
2013-03-22 08:20:00,51.3,13.5,29.49,North,0,0.2,1.1,22,0.00,,,0.00,WUHU216HW,2013-03-22 14:20:00,
2013-03-22 08:22:00,51.8,14.0,29.49,North,0,0.9,1.1,22,0.00,,,0.00,WUHU216HW,2013-03-22 14:22:00,
2013-03-22 08:24:00,52.4,14.4,29.49,North,0,0.4,1.1,22,0.00,,,0.00,WUHU216HW,2013-03-22 14:24:00,
2013-03-22 08:26:00,52.7,13.8,29.49,NNW,338,0.9,1.1,21,0.00,,,0.00,WUHU216HW,2013-03-22 14:26:00,
2013-03-22 08:27:00,52.9,13.9,29.49,NNW,338,1.1,1.3,21,0.00,,,0.00,WUHU216HW,2013-03-22 14:27:00,
2013-03-22 08:29:00,53.6,14.5,29.49,NNW,338,0.4,1.3,21,0.00,,,0.00,WUHU216HW,2013-03-22 14:29:00,
2013-03-22 08:30:00,53.6,14.5,29.49,NNW,338,0.2,1.3,21,0.00,,,0.00,WUHU216HW,2013-03-22 14:30:00,
2013-03-22 08:31:00,53.8,14.6,29.49,NNE,23,0.0,1.3,21,0.00,,,0.00,WUHU216HW,2013-03-22 14:31:00,
2013-03-22 08:32:00,54.0,14.8,29.49,NNE,23,0.0,1.3,21,0.00,,,0.00,WUHU216HW,2013-03-22 14:32:00,
2013-03-22 08:35:00,54.4,15.1,29.49,NNE,23,0.7,1.3,21,0.00,,,0.00,WUHU216HW,2013-03-22 14:35:00,
2013-03-22 08:36:00,54.5,15.2,29.49,ENE,68,0.7,1.3,21,0.00,,,0.00,WUHU216HW,2013-03-22 14:36:00,
2013-03-22 08:38:00,54.7,15.4,29.49,NE,45,1.1,1.3,21,0.00,,,0.00,WUHU216HW,2013-03-22 14:38:00,
2013-03-22 08:40:00,55.1,14.8,29.49,NE,45,1.1,2.0,20,0.00,,,0.00,WUHU216HW,2013-03-22 14:40:00,
2013-03-22 08:41:00,55.3,14.9,29.49,ENE,68,0.4,2.0,20,0.00,,,0.00,WUHU216HW,2013-03-22 14:41:00,
2013-03-22 08:43:00,55.4,15.1,29.49,NE,45,0.4,2.0,20,0.00,,,0.00,WUHU216HW,2013-03-22 14:43:00,
2013-03-22 08:45:00,55.8,15.4,29.48,ENE,68,0.0,2.0,20,0.00,,,0.00,WUHU216HW,2013-03-22 14:45:00,
2013-03-22 08:47:00,56.2,15.7,29.48,ENE,68,0.2,2.0,20,0.00,,,0.00,WUHU216HW,2013-03-22 14:47:00,
2013-03-22 08:48:00,56.3,15.8,29.48,ENE,68,0.0,2.0,20,0.00,,,0.00,WUHU216HW,2013-03-22 14:48:00,
2013-03-22 08:50:00,56.7,16.1,29.48,East,90,1.1,1.1,20,0.00,,,0.00,WUHU216HW,2013-03-22 14:50:00,
2013-03-22 08:52:00,56.9,13.1,29.48,ENE,68,1.6,1.8,18,0.00,,,0.00,WUHU216HW,2013-03-22 14:52:00,
2013-03-22 08:53:00,56.9,13.1,29.48,ENE,68,0.9,1.8,18,0.00,,,0.00,WUHU216HW,2013-03-22 14:53:00,
2013-03-22 08:56:00,57.2,13.5,29.48,East,90,1.1,1.8,18,0.00,,,0.00,WUHU216HW,2013-03-22 14:56:00,
2013-03-22 08:57:00,57.2,13.5,29.48,ENE,68,1.3,1.8,18,0.00,,,0.00,WUHU216HW,2013-03-22 14:57:00,
2013-03-22 08:58:00,57.4,13.6,29.48,ENE,68,1.1,1.8,18,0.00,,,0.00,WUHU216HW,2013-03-22 14:58:00,
2013-03-22 09:01:00,57.6,13.8,29.48,ENE,68,1.1,1.8,18,0.00,,,0.00,WUHU216HW,2013-03-22 15:01:00,
2013-03-22 09:02:00,57.6,13.8,29.48,ENE,68,1.1,1.8,18,0.00,,,0.00,WUHU216HW,2013-03-22 15:02:00,
2013-03-22 09:03:00,57.6,13.8,29.48,ENE,68,0.2,1.8,18,0.00,,,0.00,WUHU216HW,2013-03-22 15:03:00,
2013-03-22 09:06:00,58.0,14.0,29.49,NNE,23,0.7,1.8,18,0.00,,,0.00,WUHU216HW,2013-03-22 15:06:00,
2013-03-22 09:07:00,58.0,14.0,29.49,NNE,23,0.0,1.8,18,0.00,,,0.00,WUHU216HW,2013-03-22 15:07:00,
2013-03-22 09:08:00,58.1,14.2,29.49,ENE,68,1.1,1.8,18,0.00,,,0.00,WUHU216HW,2013-03-22 15:08:00,
2013-03-22 09:11:00,58.7,14.6,29.49,ESE,113,1.6,1.6,18,0.00,,,0.00,WUHU216HW,2013-03-22 15:11:00,
2013-03-22 09:12:00,58.7,14.6,29.49,ENE,68,0.7,1.6,18,0.00,,,0.00,WUHU216HW,2013-03-22 15:12:00,
2013-03-22 09:13:00,58.7,14.6,29.49,ENE,68,0.4,1.6,18,0.00,,,0.00,WUHU216HW,2013-03-22 15:13:00,
2013-03-22 09:17:00,59.0,15.0,29.49,East,90,2.2,2.5,18,0.00,,,0.00,WUHU216HW,2013-03-22 15:17:00,
2013-03-22 09:18:00,59.0,15.0,29.49,East,90,1.8,2.5,18,0.00,,,0.00,WUHU216HW,2013-03-22 15:18:00,
2013-03-22 09:22:00,59.4,15.2,29.49,NE,45,0.9,2.5,18,0.00,,,0.00,WUHU216HW,2013-03-22 15:22:00,
2013-03-22 09:23:00,59.4,15.2,29.49,East,90,1.3,2.5,18,0.00,,,0.00,WUHU216HW,2013-03-22 15:23:00,
2013-03-22 09:24:00,59.4,15.2,29.49,North,0,1.1,2.2,18,0.00,,,0.00,WUHU216HW,2013-03-22 15:24:00,
2013-03-22 09:27:00,59.6,15.4,29.49,NE,45,2.5,2.9,18,0.00,,,0.00,WUHU216HW,2013-03-22 15:27:00,
2013-03-22 09:28:00,59.8,15.6,29.49,NNE,23,0.9,3.4,18,0.00,,,0.00,WUHU216HW,2013-03-22 15:28:00,
2013-03-22 09:29:00,59.8,15.6,29.49,North,0,0.9,3.4,18,0.00,,,0.00,WUHU216HW,2013-03-22 15:29:00,
2013-03-22 09:32:00,60.1,14.3,29.49,North,0,1.3,3.4,17,0.00,,,0.00,WUHU216HW,2013-03-22 15:32:00,
2013-03-22 09:33:00,60.1,14.3,29.49,NNE,23,4.3,4.3,17,0.00,,,0.00,WUHU216HW,2013-03-22 15:33:00,
2013-03-22 09:34:00,60.1,12.8,29.49,North,0,3.6,4.7,16,0.00,,,0.00,WUHU216HW,2013-03-22 15:34:00,
2013-03-22 09:37:00,59.8,12.4,29.49,ENE,68,2.0,4.7,16,0.00,,,0.00,WUHU216HW,2013-03-22 15:37:00,
2013-03-22 09:38:00,59.8,14.0,29.49,NNE,23,2.7,4.7,17,0.00,,,0.00,WUHU216HW,2013-03-22 15:38:00,
2013-03-22 09:39:00,59.8,14.0,29.49,North,0,1.1,4.7,17,0.00,,,0.00,WUHU216HW,2013-03-22 15:39:00,
2013-03-22 09:42:00,60.1,12.8,29.49,NNE,23,4.7,5.8,16,0.00,,,0.00,WUHU216HW,2013-03-22 15:42:00,
2013-03-22 09:43:00,60.3,12.9,29.49,North,0,5.6,6.7,16,0.00,,,0.00,WUHU216HW,2013-03-22 15:43:00,
2013-03-22 09:44:00,60.5,13.1,29.49,NNE,23,6.9,6.9,16,0.00,,,0.00,WUHU216HW,2013-03-22 15:44:00,
2013-03-22 09:48:00,60.7,13.2,29.49,North,0,2.5,6.9,16,0.00,,,0.00,WUHU216HW,2013-03-22 15:48:00,
2013-03-22 09:49:00,60.8,13.3,29.49,North,0,2.5,6.9,16,0.00,,,0.00,WUHU216HW,2013-03-22 15:49:00,
2013-03-22 09:53:00,61.2,13.7,29.49,West,270,0.7,6.9,16,0.00,,,0.00,WUHU216HW,2013-03-22 15:53:00,
2013-03-22 09:54:00,61.6,14.0,29.49,NNW,338,0.7,6.3,16,0.00,,,0.00,WUHU216HW,2013-03-22 15:54:00,
2013-03-22 09:58:00,61.9,14.2,29.49,NW,315,2.5,2.9,16,0.00,,,0.00,WUHU216HW,2013-03-22 15:58:00,
2013-03-22 09:59:00,62.1,14.4,29.49,NNW,338,2.2,3.1,16,0.00,,,0.00,WUHU216HW,2013-03-22 15:59:00,
2013-03-22 10:00:00,62.3,14.5,29.48,North,0,1.3,3.1,16,0.00,,,0.00,WUHU216HW,2013-03-22 16:00:00,
2013-03-22 10:03:00,62.8,15.0,29.49,NNE,23,0.2,3.1,16,0.00,,,0.00,WUHU216HW,2013-03-22 16:03:00,
2013-03-22 10:04:00,62.8,13.4,29.48,NNW,338,0.4,3.1,15,0.00,,,0.00,WUHU216HW,2013-03-22 16:04:00,
2013-03-22 10:05:00,62.8,13.4,29.49,North,0,0.7,3.1,15,0.00,,,0.00,WUHU216HW,2013-03-22 16:05:00,
2013-03-22 10:08:00,63.4,13.8,29.48,ENE,68,3.4,3.6,15,0.00,,,0.00,WUHU216HW,2013-03-22 16:08:00,
2013-03-22 10:09:00,63.4,13.8,29.48,East,90,2.2,3.6,15,0.00,,,0.00,WUHU216HW,2013-03-22 16:09:00,
2013-03-22 10:10:00,63.2,10.5,29.48,NNE,23,4.3,5.4,13,0.00,,,0.00,WUHU216HW,2013-03-22 16:10:00,
2013-03-22 10:13:00,62.5,13.1,29.49,ESE,113,1.8,6.3,15,0.00,,,0.00,WUHU216HW,2013-03-22 16:13:00,
2013-03-22 10:14:00,62.3,11.3,29.49,East,90,2.0,6.3,14,0.00,,,0.00,WUHU216HW,2013-03-22 16:14:00,
2013-03-22 10:15:00,62.1,12.8,29.49,ENE,68,1.6,6.3,15,0.00,,,0.00,WUHU216HW,2013-03-22 16:15:00,
2013-03-22 10:18:00,62.1,12.8,29.49,North,0,2.2,6.3,15,0.00,,,0.00,WUHU216HW,2013-03-22 16:18:00,
2013-03-22 10:19:00,62.1,12.8,29.49,NNE,23,2.0,6.3,15,0.00,,,0.00,WUHU216HW,2013-03-22 16:19:00,
2013-03-22 10:20:00,62.3,13.0,29.49,North,0,1.8,6.3,15,0.00,,,0.00,WUHU216HW,2013-03-22 16:20:00,
2013-03-22 10:23:00,62.6,13.2,29.49,NE,45,1.6,2.9,15,0.00,,,0.00,WUHU216HW,2013-03-22 16:23:00,
2013-03-22 10:24:00,62.6,13.2,29.49,NE,45,2.5,2.9,15,0.00,,,0.00,WUHU216HW,2013-03-22 16:24:00,
2013-03-22 10:25:00,62.8,13.4,29.49,North,0,2.5,2.9,15,0.00,,,0.00,WUHU216HW,2013-03-22 16:25:00,
2013-03-22 10:29:00,63.0,10.4,29.48,SE,135,3.4,3.8,13,0.00,,,0.00,WUHU216HW,2013-03-22 16:29:00,
2013-03-22 10:30:00,62.8,10.3,29.48,SSE,158,4.3,4.3,13,0.00,,,0.00,WUHU216HW,2013-03-22 16:30:00,
2013-03-22 10:34:00,62.6,10.1,29.48,WSW,248,1.8,4.3,13,0.00,,,0.00,WUHU216HW,2013-03-22 16:34:00,
2013-03-22 10:35:00,62.6,10.1,29.48,SSW,203,2.0,4.3,13,0.00,,,0.00,WUHU216HW,2013-03-22 16:35:00,
2013-03-22 10:39:00,62.6,10.1,29.48,SW,225,0.7,4.3,13,0.00,,,0.00,WUHU216HW,2013-03-22 16:39:00,
2013-03-22 10:41:00,62.8,11.8,29.48,WSW,248,3.6,4.3,14,0.00,,,0.00,WUHU216HW,2013-03-22 16:41:00,
2013-03-22 10:44:00,63.5,10.7,29.48,NNE,23,0.4,3.6,13,0.00,,,0.00,WUHU216HW,2013-03-22 16:44:00,
2013-03-22 10:45:00,63.7,10.9,29.48,NNW,338,0.9,3.6,13,0.00,,,0.00,WUHU216HW,2013-03-22 16:45:00,
2013-03-22 10:47:00,64.1,14.3,29.47,SE,135,0.2,3.6,15,0.00,,,0.00,WUHU216HW,2013-03-22 16:47:00,
2013-03-22 10:49:00,64.6,11.5,29.47,NE,45,1.8,3.6,13,0.00,,,0.00,WUHU216HW,2013-03-22 16:49:00,
2013-03-22 10:50:00,64.6,11.5,29.47,NE,45,1.1,3.6,13,0.00,,,0.00,WUHU216HW,2013-03-22 16:50:00,
2013-03-22 10:52:00,65.0,11.9,29.47,North,0,0.4,3.8,13,0.00,,,0.00,WUHU216HW,2013-03-22 16:52:00,
2013-03-22 10:54:00,65.3,12.2,29.47,SSE,158,3.8,4.3,13,0.00,,,0.00,WUHU216HW,2013-03-22 16:54:00,
2013-03-22 10:55:00,65.5,12.2,29.47,South,180,4.5,4.5,13,0.00,,,0.00,WUHU216HW,2013-03-22 16:55:00,
2013-03-22 10:57:00,65.9,12.6,29.47,SE,135,2.5,4.5,13,0.00,,,0.00,WUHU216HW,2013-03-22 16:57:00,
2013-03-22 10:59:00,65.9,12.6,29.47,ESE,113,4.5,4.5,13,0.00,,,0.00,WUHU216HW,2013-03-22 16:59:00,
2013-03-22 11:00:00,65.9,12.6,29.47,SE,135,4.0,4.5,13,0.00,,,0.00,WUHU216HW,2013-03-22 17:00:00,
2013-03-22 11:02:00,65.7,12.4,29.47,SSE,158,1.1,4.5,13,0.00,,,0.00,WUHU216HW,2013-03-22 17:02:00,
2013-03-22 11:05:00,65.7,12.4,29.47,ESE,113,1.1,4.5,13,0.00,,,0.00,WUHU216HW,2013-03-22 17:05:00,
2013-03-22 11:07:00,65.7,10.8,29.47,SE,135,5.1,5.4,12,0.00,,,0.00,WUHU216HW,2013-03-22 17:07:00,
2013-03-22 11:10:00,65.7,12.4,29.47,SE,135,1.6,5.4,13,0.00,,,0.00,WUHU216HW,2013-03-22 17:10:00,
2013-03-22 11:12:00,65.5,10.7,29.47,SE,135,3.1,6.3,12,0.00,,,0.00,WUHU216HW,2013-03-22 17:12:00,
2013-03-22 11:15:00,65.5,12.2,29.47,East,90,1.1,6.3,13,0.00,,,0.00,WUHU216HW,2013-03-22 17:15:00,
2013-03-22 11:16:00,65.5,12.2,29.47,NNE,23,2.0,6.3,13,0.00,,,0.00,WUHU216HW,2013-03-22 17:16:00,
2013-03-22 11:18:00,65.7,10.8,29.47,East,90,2.5,6.3,12,0.00,,,0.00,WUHU216HW,2013-03-22 17:18:00,
2013-03-22 11:20:00,65.9,12.6,29.47,NE,45,1.1,6.3,13,0.00,,,0.00,WUHU216HW,2013-03-22 17:20:00,
2013-03-22 11:22:00,66.1,12.7,29.46,SSE,158,2.0,5.1,13,0.00,,,0.00,WUHU216HW,2013-03-22 17:22:00,
2013-03-22 11:23:00,66.2,12.9,29.46,SSE,158,1.8,5.1,13,0.00,,,0.00,WUHU216HW,2013-03-22 17:23:00,
2013-03-22 11:25:00,66.4,11.4,29.46,ESE,113,4.5,5.4,12,0.00,,,0.00,WUHU216HW,2013-03-22 17:25:00,
2013-03-22 11:27:00,66.2,9.7,29.46,South,180,4.0,5.8,11,0.00,,,0.00,WUHU216HW,2013-03-22 17:27:00,
2013-03-22 11:28:00,66.2,11.3,29.46,SSE,158,3.4,5.8,12,0.00,,,0.00,WUHU216HW,2013-03-22 17:28:00,
2013-03-22 11:30:00,65.9,11.0,29.46,SSW,203,5.4,8.7,12,0.00,,,0.00,WUHU216HW,2013-03-22 17:30:00,
2013-03-22 11:32:00,66.1,11.2,29.46,SSW,203,6.9,8.7,12,0.00,,,0.00,WUHU216HW,2013-03-22 17:32:00,
2013-03-22 11:33:00,66.1,11.2,29.46,WNW,293,2.7,8.7,12,0.00,,,0.00,WUHU216HW,2013-03-22 17:33:00,
2013-03-22 11:35:00,66.6,11.5,29.46,South,180,4.3,8.7,12,0.00,,,0.00,WUHU216HW,2013-03-22 17:35:00,
2013-03-22 11:36:00,66.8,11.7,29.46,SE,135,3.4,8.7,12,0.00,,,0.00,WUHU216HW,2013-03-22 17:36:00,
2013-03-22 11:37:00,67.0,11.9,29.46,SW,225,0.2,8.7,12,0.00,,,0.00,WUHU216HW,2013-03-22 17:37:00,
2013-03-22 11:38:00,67.0,11.9,29.46,SSW,203,2.0,8.7,12,0.00,,,0.00,WUHU216HW,2013-03-22 17:38:00,
2013-03-22 11:40:00,67.1,10.5,29.46,ESE,113,2.7,6.9,11,0.00,,,0.00,WUHU216HW,2013-03-22 17:40:00,
2013-03-22 11:42:00,67.3,10.5,29.46,ENE,68,1.8,6.9,11,0.00,,,0.00,WUHU216HW,2013-03-22 17:42:00,
2013-03-22 11:43:00,67.3,10.5,29.46,SSE,158,4.7,6.0,11,0.00,,,0.00,WUHU216HW,2013-03-22 17:43:00,
2013-03-22 11:45:00,67.5,10.7,29.46,SSE,158,2.5,6.9,11,0.00,,,0.00,WUHU216HW,2013-03-22 17:45:00,
2013-03-22 11:47:00,67.5,9.1,29.46,SSW,203,2.7,6.9,10,0.00,,,0.00,WUHU216HW,2013-03-22 17:47:00,
2013-03-22 11:48:00,67.5,10.7,29.45,ESE,113,4.5,6.9,11,0.00,,,0.00,WUHU216HW,2013-03-22 17:48:00,
2013-03-22 11:50:00,67.0,8.6,29.45,SE,135,4.0,7.6,10,0.00,,,0.00,WUHU216HW,2013-03-22 17:50:00,
2013-03-22 11:52:00,66.6,10.0,29.45,ENE,68,2.5,7.6,11,0.00,,,0.00,WUHU216HW,2013-03-22 17:52:00,
2013-03-22 11:53:00,66.4,9.8,29.45,West,270,0.9,7.6,11,0.00,,,0.00,WUHU216HW,2013-03-22 17:53:00,
2013-03-22 11:56:00,66.2,9.7,29.45,South,180,7.6,7.6,11,0.00,,,0.00,WUHU216HW,2013-03-22 17:56:00,
2013-03-22 11:57:00,66.2,9.7,29.45,SSE,158,7.6,7.6,11,0.00,,,0.00,WUHU216HW,2013-03-22 17:57:00,
2013-03-22 11:58:00,66.2,9.7,29.45,SE,135,6.9,7.6,11,0.00,,,0.00,WUHU216HW,2013-03-22 17:58:00,
2013-03-22 12:02:00,65.9,9.4,29.45,SSE,158,6.9,8.3,11,0.00,,,0.00,WUHU216HW,2013-03-22 18:02:00,
2013-03-22 12:03:00,65.7,9.3,29.45,SSW,203,7.8,8.3,11,0.00,,,0.00,WUHU216HW,2013-03-22 18:03:00,
2013-03-22 12:07:00,66.2,11.3,29.44,SW,225,4.3,8.3,12,0.00,,,0.00,WUHU216HW,2013-03-22 18:07:00,
2013-03-22 12:08:00,66.4,11.4,29.44,WSW,248,3.6,8.3,12,0.00,,,0.00,WUHU216HW,2013-03-22 18:08:00,
2013-03-22 12:12:00,67.1,12.0,29.44,SW,225,4.3,7.8,12,0.00,,,0.00,WUHU216HW,2013-03-22 18:12:00,
2013-03-22 12:13:00,67.3,12.2,29.44,WSW,248,4.3,6.9,12,0.00,,,0.00,WUHU216HW,2013-03-22 18:13:00,
2013-03-22 12:14:00,67.3,12.2,29.44,SW,225,5.6,6.9,12,0.00,,,0.00,WUHU216HW,2013-03-22 18:14:00,
2013-03-22 12:17:00,67.9,12.6,29.44,South,180,2.5,6.9,12,0.00,,,0.00,WUHU216HW,2013-03-22 18:17:00,
2013-03-22 12:19:00,68.2,11.3,29.44,South,180,2.5,6.9,11,0.00,,,0.00,WUHU216HW,2013-03-22 18:19:00,
2013-03-22 12:22:00,68.4,11.4,29.44,South,180,3.8,6.9,11,0.00,,,0.00,WUHU216HW,2013-03-22 18:22:00,
2013-03-22 12:24:00,68.4,11.4,29.43,SSW,203,4.7,6.9,11,0.00,,,0.00,WUHU216HW,2013-03-22 18:24:00,
2013-03-22 12:27:00,68.6,11.5,29.43,SW,225,6.0,6.0,11,0.00,,,0.00,WUHU216HW,2013-03-22 18:27:00,
2013-03-22 12:29:00,68.8,11.6,29.43,West,270,4.7,6.9,11,0.00,,,0.00,WUHU216HW,2013-03-22 18:29:00,
2013-03-22 12:32:00,68.9,11.8,29.43,SSW,203,3.8,6.9,11,0.00,,,0.00,WUHU216HW,2013-03-22 18:32:00,
2013-03-22 12:33:00,68.9,11.8,29.43,SSW,203,4.0,6.9,11,0.00,,,0.00,WUHU216HW,2013-03-22 18:33:00,
2013-03-22 12:34:00,69.3,12.1,29.43,SSE,158,7.8,9.2,11,0.00,,,0.00,WUHU216HW,2013-03-22 18:34:00,
2013-03-22 12:37:00,69.3,12.1,29.43,West,270,2.2,9.2,11,0.00,,,0.00,WUHU216HW,2013-03-22 18:37:00,
2013-03-22 12:38:00,69.3,12.1,29.43,SW,225,1.1,9.2,11,0.00,,,0.00,WUHU216HW,2013-03-22 18:38:00,
2013-03-22 12:39:00,69.5,12.2,29.42,SSE,158,3.8,9.2,11,0.00,,,0.00,WUHU216HW,2013-03-22 18:39:00,
2013-03-22 12:42:00,68.9,11.8,29.42,SSW,203,5.1,9.8,11,0.00,,,0.00,WUHU216HW,2013-03-22 18:42:00,
2013-03-22 12:43:00,68.8,11.6,29.42,SW,225,3.4,9.8,11,0.00,,,0.00,WUHU216HW,2013-03-22 18:43:00,
2013-03-22 12:44:00,68.6,11.5,29.42,SE,135,3.6,9.8,11,0.00,,,0.00,WUHU216HW,2013-03-22 18:44:00,
2013-03-22 12:45:00,68.4,11.4,29.42,SE,135,4.5,9.8,11,0.00,,,0.00,WUHU216HW,2013-03-22 18:45:00,
2013-03-22 12:47:00,68.2,11.3,29.42,SE,135,4.3,9.8,11,0.00,,,0.00,WUHU216HW,2013-03-22 18:47:00,
2013-03-22 12:48:00,68.0,11.2,29.42,SSW,203,3.8,9.8,11,0.00,,,0.00,WUHU216HW,2013-03-22 18:48:00,
2013-03-22 12:49:00,67.9,11.0,29.42,South,180,8.9,9.8,11,0.00,,,0.00,WUHU216HW,2013-03-22 18:49:00,
2013-03-22 12:50:00,67.7,10.9,29.42,South,180,9.8,9.8,11,0.00,,,0.00,WUHU216HW,2013-03-22 18:50:00,
2013-03-22 12:53:00,67.9,11.0,29.41,SSW,203,3.8,9.8,11,0.00,,,0.00,WUHU216HW,2013-03-22 18:53:00,
2013-03-22 12:55:00,68.0,12.8,29.41,SE,135,1.8,9.8,12,0.00,,,0.00,WUHU216HW,2013-03-22 18:55:00,
2013-03-22 12:58:00,68.6,13.2,29.41,ENE,68,1.8,9.8,12,0.00,,,0.00,WUHU216HW,2013-03-22 18:58:00,
2013-03-22 13:00:00,68.9,11.8,29.41,South,180,9.4,9.8,11,0.00,,,0.00,WUHU216HW,2013-03-22 19:00:00,
2013-03-22 13:03:00,68.8,11.6,29.40,SSE,158,7.2,10.3,11,0.00,,,0.00,WUHU216HW,2013-03-22 19:03:00,
2013-03-22 13:05:00,68.0,11.2,29.40,South,180,5.4,10.7,11,0.00,,,0.00,WUHU216HW,2013-03-22 19:05:00,
2013-03-22 13:08:00,67.3,10.5,29.40,West,270,3.4,10.7,11,0.00,,,0.00,WUHU216HW,2013-03-22 19:08:00,
2013-03-22 13:10:00,67.3,10.5,29.40,SE,135,4.7,10.7,11,0.00,,,0.00,WUHU216HW,2013-03-22 19:10:00,
2013-03-22 13:13:00,67.7,12.4,29.40,SSW,203,8.3,10.7,12,0.00,,,0.00,WUHU216HW,2013-03-22 19:13:00,
2013-03-22 13:15:00,67.9,12.6,29.40,SSW,203,4.7,10.5,12,0.00,,,0.00,WUHU216HW,2013-03-22 19:15:00,
2013-03-22 13:18:00,68.2,12.9,29.39,SSE,158,3.8,10.5,12,0.00,,,0.00,WUHU216HW,2013-03-22 19:18:00,
2013-03-22 13:20:00,68.2,12.9,29.39,SSE,158,8.5,10.5,12,0.00,,,0.00,WUHU216HW,2013-03-22 19:20:00,
2013-03-22 13:22:00,68.0,11.2,29.39,SE,135,9.6,10.5,11,0.00,,,0.00,WUHU216HW,2013-03-22 19:22:00,
2013-03-22 13:23:00,67.9,11.0,29.39,ESE,113,2.9,9.8,11,0.00,,,0.00,WUHU216HW,2013-03-22 19:23:00,
2013-03-22 13:26:00,67.7,10.9,29.39,North,0,1.3,9.6,11,0.00,,,0.00,WUHU216HW,2013-03-22 19:26:00,
2013-03-22 13:27:00,67.7,12.4,29.39,NNW,338,1.8,9.6,12,0.00,,,0.00,WUHU216HW,2013-03-22 19:27:00,
2013-03-22 13:28:00,67.7,12.4,29.39,ENE,68,0.9,9.6,12,0.00,,,0.00,WUHU216HW,2013-03-22 19:28:00,
2013-03-22 13:31:00,67.7,12.4,29.39,SSE,158,0.7,9.6,12,0.00,,,0.00,WUHU216HW,2013-03-22 19:31:00,
2013-03-22 13:32:00,67.9,12.6,29.39,SE,135,1.8,3.6,12,0.00,,,0.00,WUHU216HW,2013-03-22 19:32:00,
2013-03-22 13:33:00,67.9,11.0,29.39,NE,45,4.0,4.0,11,0.00,,,0.00,WUHU216HW,2013-03-22 19:33:00,
2013-03-22 13:34:00,67.9,11.0,29.38,North,0,4.0,4.0,11,0.00,,,0.00,WUHU216HW,2013-03-22 19:34:00,
2013-03-22 13:36:00,67.7,10.9,29.38,East,90,3.1,4.7,11,0.00,,,0.00,WUHU216HW,2013-03-22 19:36:00,
2013-03-22 13:37:00,67.5,10.7,29.39,ENE,68,2.0,4.7,11,0.00,,,0.00,WUHU216HW,2013-03-22 19:37:00,
2013-03-22 13:38:00,67.3,10.5,29.39,NE,45,6.9,6.9,11,0.00,,,0.00,WUHU216HW,2013-03-22 19:38:00,
2013-03-22 13:39:00,67.3,10.5,29.38,NE,45,4.5,6.9,11,0.00,,,0.00,WUHU216HW,2013-03-22 19:39:00,
2013-03-22 13:42:00,66.6,10.0,29.38,NNE,23,4.0,9.2,11,0.00,,,0.00,WUHU216HW,2013-03-22 19:42:00,
2013-03-22 13:43:00,66.4,9.8,29.38,NNE,23,6.3,9.2,11,0.00,,,0.00,WUHU216HW,2013-03-22 19:43:00,
2013-03-22 13:44:00,66.4,9.8,29.38,ENE,68,4.3,9.2,11,0.00,,,0.00,WUHU216HW,2013-03-22 19:44:00,
2013-03-22 13:47:00,66.1,11.2,29.38,East,90,3.4,9.2,12,0.00,,,0.00,WUHU216HW,2013-03-22 19:47:00,
2013-03-22 13:48:00,65.9,11.0,29.38,ENE,68,1.3,9.2,12,0.00,,,0.00,WUHU216HW,2013-03-22 19:48:00,
2013-03-22 13:49:00,65.9,11.0,29.38,North,0,6.9,9.2,12,0.00,,,0.00,WUHU216HW,2013-03-22 19:49:00,
2013-03-22 13:52:00,65.9,11.0,29.37,North,0,6.3,9.2,12,0.00,,,0.00,WUHU216HW,2013-03-22 19:52:00,
2013-03-22 13:53:00,65.9,11.0,29.37,NNE,23,5.8,9.2,12,0.00,,,0.00,WUHU216HW,2013-03-22 19:53:00,
2013-03-22 13:54:00,65.9,11.0,29.37,NE,45,6.5,9.2,12,0.00,,,0.00,WUHU216HW,2013-03-22 19:54:00,
2013-03-22 13:57:00,65.7,10.8,29.37,NNE,23,5.1,9.2,12,0.00,,,0.00,WUHU216HW,2013-03-22 19:57:00,
2013-03-22 13:58:00,65.7,10.8,29.37,NNE,23,5.1,9.2,12,0.00,,,0.00,WUHU216HW,2013-03-22 19:58:00,
2013-03-22 13:59:00,65.5,10.7,29.37,ENE,68,5.6,9.2,12,0.00,,,0.00,WUHU216HW,2013-03-22 19:59:00,
2013-03-22 14:03:00,65.5,10.7,29.37,ENE,68,5.8,8.5,12,0.00,,,0.00,WUHU216HW,2013-03-22 20:03:00,
2013-03-22 14:04:00,65.5,10.7,29.37,NNE,23,3.8,8.5,12,0.00,,,0.00,WUHU216HW,2013-03-22 20:04:00,
2013-03-22 14:08:00,65.5,10.7,29.37,NE,45,4.3,8.5,12,0.00,,,0.00,WUHU216HW,2013-03-22 20:08:00,
2013-03-22 14:09:00,65.5,10.7,29.37,North,0,2.7,8.5,12,0.00,,,0.00,WUHU216HW,2013-03-22 20:09:00,
2013-03-22 14:10:00,65.3,10.5,29.37,North,0,3.1,8.1,12,0.00,,,0.00,WUHU216HW,2013-03-22 20:10:00,
2013-03-22 14:13:00,65.3,10.5,29.37,NE,45,2.0,5.8,12,0.00,,,0.00,WUHU216HW,2013-03-22 20:13:00,
2013-03-22 14:14:00,65.2,10.5,29.37,NNE,23,3.4,5.4,12,0.00,,,0.00,WUHU216HW,2013-03-22 20:14:00,
2013-03-22 14:15:00,65.2,10.5,29.36,NNE,23,3.6,5.4,12,0.00,,,0.00,WUHU216HW,2013-03-22 20:15:00,
2013-03-22 14:18:00,65.2,10.5,29.36,North,0,5.6,8.5,12,0.00,,,0.00,WUHU216HW,2013-03-22 20:18:00,
2013-03-22 14:19:00,65.2,10.5,29.36,NNE,23,4.7,8.5,12,0.00,,,0.00,WUHU216HW,2013-03-22 20:19:00,
2013-03-22 14:20:00,65.2,10.5,29.37,North,0,4.5,8.5,12,0.00,,,0.00,WUHU216HW,2013-03-22 20:20:00,
2013-03-22 14:23:00,65.3,10.5,29.36,NNW,338,1.8,8.5,12,0.00,,,0.00,WUHU216HW,2013-03-22 20:23:00,
2013-03-22 14:24:00,65.3,10.5,29.37,North,0,3.4,8.5,12,0.00,,,0.00,WUHU216HW,2013-03-22 20:24:00,
2013-03-22 14:25:00,65.3,10.5,29.37,NNW,338,3.6,8.5,12,0.00,,,0.00,WUHU216HW,2013-03-22 20:25:00,
2013-03-22 14:28:00,65.5,10.7,29.36,NNW,338,1.6,7.4,12,0.00,,,0.00,WUHU216HW,2013-03-22 20:28:00,
2013-03-22 14:29:00,65.5,10.7,29.36,NE,45,1.6,7.4,12,0.00,,,0.00,WUHU216HW,2013-03-22 20:29:00,
2013-03-22 14:30:00,65.5,10.7,29.36,NE,45,0.9,6.3,12,0.00,,,0.00,WUHU216HW,2013-03-22 20:30:00,
2013-03-22 14:33:00,65.5,10.7,29.36,NNE,23,3.1,6.3,12,0.00,,,0.00,WUHU216HW,2013-03-22 20:33:00,
2013-03-22 14:34:00,65.5,10.7,29.36,North,0,0.0,6.3,12,0.00,,,0.00,WUHU216HW,2013-03-22 20:34:00,
2013-03-22 14:35:00,65.5,10.7,29.36,North,0,0.4,6.3,12,0.00,,,0.00,WUHU216HW,2013-03-22 20:35:00,
2013-03-22 14:38:00,65.5,10.7,29.36,ENE,68,1.6,5.4,12,0.00,,,0.00,WUHU216HW,2013-03-22 20:38:00,
2013-03-22 14:39:00,65.7,10.8,29.36,ENE,68,0.4,4.3,12,0.00,,,0.00,WUHU216HW,2013-03-22 20:39:00,
2013-03-22 14:40:00,65.9,11.0,29.36,NNE,23,2.2,4.3,12,0.00,,,0.00,WUHU216HW,2013-03-22 20:40:00,
2013-03-22 14:43:00,65.7,10.8,29.36,West,270,1.6,2.5,12,0.00,,,0.00,WUHU216HW,2013-03-22 20:43:00,
2013-03-22 14:44:00,65.7,12.4,29.36,WSW,248,1.1,2.5,13,0.00,,,0.00,WUHU216HW,2013-03-22 20:44:00,
2013-03-22 14:45:00,65.9,12.6,29.36,West,270,1.8,2.5,13,0.00,,,0.00,WUHU216HW,2013-03-22 20:45:00,
2013-03-22 14:48:00,65.9,12.6,29.36,North,0,1.6,2.5,13,0.00,,,0.00,WUHU216HW,2013-03-22 20:48:00,
2013-03-22 14:49:00,66.1,11.2,29.36,North,0,8.5,8.5,12,0.00,,,0.00,WUHU216HW,2013-03-22 20:49:00,
2013-03-22 14:50:00,66.1,11.2,29.36,NNW,338,4.7,8.5,12,0.00,,,0.00,WUHU216HW,2013-03-22 20:50:00,
2013-03-22 14:53:00,65.7,10.8,29.36,NE,45,2.9,8.5,12,0.00,,,0.00,WUHU216HW,2013-03-22 20:53:00,
2013-03-22 14:54:00,65.7,10.8,29.36,NNW,338,3.6,8.5,12,0.00,,,0.00,WUHU216HW,2013-03-22 20:54:00,
2013-03-22 14:55:00,65.7,12.4,29.36,NNW,338,1.8,8.5,13,0.00,,,0.00,WUHU216HW,2013-03-22 20:55:00,
2013-03-22 14:58:00,65.7,12.4,29.35,NNE,23,0.9,8.5,13,0.00,,,0.00,WUHU216HW,2013-03-22 20:58:00,
2013-03-22 14:59:00,65.7,12.4,29.35,North,0,0.4,8.5,13,0.00,,,0.00,WUHU216HW,2013-03-22 20:59:00,
2013-03-22 15:00:00,65.7,12.4,29.35,West,270,1.6,6.0,13,0.00,,,0.00,WUHU216HW,2013-03-22 21:00:00,
2013-03-22 15:04:00,65.9,12.6,29.35,NNE,23,3.6,3.6,13,0.00,,,0.00,WUHU216HW,2013-03-22 21:04:00,
2013-03-22 15:05:00,66.1,12.7,29.35,North,0,2.7,3.8,13,0.00,,,0.00,WUHU216HW,2013-03-22 21:05:00,
2013-03-22 15:09:00,66.1,11.2,29.35,ESE,113,0.7,3.8,12,0.00,,,0.00,WUHU216HW,2013-03-22 21:09:00,
2013-03-22 15:10:00,66.1,12.7,29.35,North,0,0.9,3.8,13,0.00,,,0.00,WUHU216HW,2013-03-22 21:10:00,
2013-03-22 15:11:00,66.1,12.7,29.35,North,0,0.9,3.8,13,0.00,,,0.00,WUHU216HW,2013-03-22 21:11:00,
2013-03-22 15:14:00,66.2,12.9,29.35,NNE,23,1.1,5.6,13,0.00,,,0.00,WUHU216HW,2013-03-22 21:14:00,
2013-03-22 15:16:00,66.2,12.9,29.34,North,0,3.4,5.6,13,0.00,,,0.00,WUHU216HW,2013-03-22 21:16:00,
2013-03-22 15:17:00,66.2,12.9,29.34,WNW,293,1.1,5.6,13,0.00,,,0.00,WUHU216HW,2013-03-22 21:17:00,
2013-03-22 15:19:00,66.4,13.0,29.34,East,90,2.0,5.6,13,0.00,,,0.00,WUHU216HW,2013-03-22 21:19:00,
2013-03-22 15:21:00,66.4,13.0,29.34,SW,225,4.3,6.3,13,0.00,,,0.00,WUHU216HW,2013-03-22 21:21:00,
2013-03-22 15:22:00,66.4,13.0,29.34,WSW,248,6.3,6.3,13,0.00,,,0.00,WUHU216HW,2013-03-22 21:22:00,
2013-03-22 15:24:00,66.4,13.0,29.34,WSW,248,0.4,9.2,13,0.00,,,0.00,WUHU216HW,2013-03-22 21:24:00,
2013-03-22 15:25:00,66.6,13.1,29.34,West,270,1.8,9.2,13,0.00,,,0.00,WUHU216HW,2013-03-22 21:25:00,
2013-03-22 15:26:00,66.6,13.1,29.34,NW,315,0.0,9.2,13,0.00,,,0.00,WUHU216HW,2013-03-22 21:26:00,
2013-03-22 15:27:00,66.6,13.1,29.34,SSW,203,0.9,9.2,13,0.00,,,0.00,WUHU216HW,2013-03-22 21:27:00,
2013-03-22 15:29:00,66.6,13.1,29.34,SW,225,0.9,9.2,13,0.00,,,0.00,WUHU216HW,2013-03-22 21:29:00,
2013-03-22 15:30:00,66.6,13.1,29.34,East,90,2.7,9.2,13,0.00,,,0.00,WUHU216HW,2013-03-22 21:30:00,
2013-03-22 15:31:00,66.6,13.1,29.34,NNE,23,1.1,9.2,13,0.00,,,0.00,WUHU216HW,2013-03-22 21:31:00,
2013-03-22 15:32:00,66.6,13.1,29.35,ENE,68,0.7,9.2,13,0.00,,,0.00,WUHU216HW,2013-03-22 21:32:00,
2013-03-22 15:35:00,66.6,13.1,29.35,NNE,23,3.8,4.5,13,0.00,,,0.00,WUHU216HW,2013-03-22 21:35:00,
2013-03-22 15:37:00,66.6,13.1,29.35,NNE,23,3.8,4.5,13,0.00,,,0.00,WUHU216HW,2013-03-22 21:37:00,
2013-03-22 15:40:00,66.6,13.1,29.34,SW,225,7.2,7.6,13,0.00,,,0.00,WUHU216HW,2013-03-22 21:40:00,
2013-03-22 15:41:00,66.6,13.1,29.34,WSW,248,8.1,8.1,13,0.00,,,0.00,WUHU216HW,2013-03-22 21:41:00,
2013-03-22 15:42:00,66.8,11.7,29.34,SW,225,2.9,13.2,12,0.00,,,0.00,WUHU216HW,2013-03-22 21:42:00,
2013-03-22 15:43:00,66.8,13.3,29.34,WSW,248,3.1,13.2,13,0.00,,,0.00,WUHU216HW,2013-03-22 21:43:00,
2013-03-22 15:45:00,66.8,13.3,29.34,South,180,2.7,13.2,13,0.00,,,0.00,WUHU216HW,2013-03-22 21:45:00,
2013-03-22 15:46:00,67.0,13.4,29.34,SSE,158,2.2,13.2,13,0.00,,,0.00,WUHU216HW,2013-03-22 21:46:00,
2013-03-22 15:48:00,67.0,11.9,29.34,ESE,113,2.2,13.2,12,0.00,,,0.00,WUHU216HW,2013-03-22 21:48:00,
2013-03-22 15:51:00,67.0,13.4,29.34,SE,135,2.0,13.2,13,0.00,,,0.00,WUHU216HW,2013-03-22 21:51:00,
2013-03-22 15:52:00,67.0,13.4,29.34,North,0,1.3,13.2,13,0.00,,,0.00,WUHU216HW,2013-03-22 21:52:00,
2013-03-22 15:53:00,67.0,13.4,29.34,North,0,1.6,6.9,13,0.00,,,0.00,WUHU216HW,2013-03-22 21:53:00,
2013-03-22 15:56:00,67.1,13.6,29.34,NNW,338,3.6,3.8,13,0.00,,,0.00,WUHU216HW,2013-03-22 21:56:00,
2013-03-22 15:57:00,67.3,13.8,29.33,West,270,3.4,3.8,13,0.00,,,0.00,WUHU216HW,2013-03-22 21:57:00,
2013-03-22 15:58:00,67.3,13.8,29.34,NNW,338,0.9,3.8,13,0.00,,,0.00,WUHU216HW,2013-03-22 21:58:00,
2013-03-22 16:01:00,67.5,13.9,29.33,West,270,6.3,10.1,13,0.00,,,0.00,WUHU216HW,2013-03-22 22:01:00,
2013-03-22 16:02:00,67.7,14.0,29.33,WSW,248,6.7,10.1,13,0.00,,,0.00,WUHU216HW,2013-03-22 22:02:00,
2013-03-22 16:03:00,67.9,14.2,29.33,West,270,6.9,10.1,13,0.00,,,0.00,WUHU216HW,2013-03-22 22:03:00,
2013-03-22 16:06:00,68.4,14.6,29.33,WSW,248,7.6,10.3,13,0.00,,,0.00,WUHU216HW,2013-03-22 22:06:00,
2013-03-22 16:07:00,68.6,14.8,29.33,WSW,248,6.5,10.3,13,0.00,,,0.00,WUHU216HW,2013-03-22 22:07:00,
2013-03-22 16:08:00,68.8,14.9,29.33,WSW,248,9.4,10.3,13,0.00,,,0.00,WUHU216HW,2013-03-22 22:08:00,
2013-03-22 16:11:00,68.9,15.0,29.33,WSW,248,13.2,13.2,13,0.00,,,0.00,WUHU216HW,2013-03-22 22:11:00,
2013-03-22 16:12:00,68.8,14.9,29.33,West,270,6.5,13.9,13,0.00,,,0.00,WUHU216HW,2013-03-22 22:12:00,
2013-03-22 16:13:00,68.9,15.0,29.32,WSW,248,7.4,13.9,13,0.00,,,0.00,WUHU216HW,2013-03-22 22:13:00,
2013-03-22 16:16:00,69.1,15.1,29.32,WSW,248,6.9,13.9,13,0.00,,,0.00,WUHU216HW,2013-03-22 22:16:00,
2013-03-22 16:17:00,69.1,15.1,29.32,West,270,6.0,13.9,13,0.00,,,0.00,WUHU216HW,2013-03-22 22:17:00,
2013-03-22 16:18:00,69.3,15.3,29.32,WSW,248,8.3,13.9,13,0.00,,,0.00,WUHU216HW,2013-03-22 22:18:00,
2013-03-22 16:19:00,69.3,15.3,29.32,WSW,248,15.0,17.4,13,0.00,,,0.00,WUHU216HW,2013-03-22 22:19:00,
2013-03-22 16:21:00,69.5,15.4,29.32,WSW,248,12.8,17.4,13,0.00,,,0.00,WUHU216HW,2013-03-22 22:21:00,
2013-03-22 16:22:00,69.5,15.4,29.32,WNW,293,10.3,17.4,13,0.00,,,0.00,WUHU216HW,2013-03-22 22:22:00,
2013-03-22 16:23:00,69.5,15.4,29.32,West,270,17.9,17.9,13,0.00,,,0.00,WUHU216HW,2013-03-22 22:23:00,
2013-03-22 16:24:00,69.7,15.6,29.32,WSW,248,10.5,17.9,13,0.00,,,0.00,WUHU216HW,2013-03-22 22:24:00,
2013-03-22 16:27:00,69.5,15.4,29.32,West,270,11.2,18.6,13,0.00,,,0.00,WUHU216HW,2013-03-22 22:27:00,
2013-03-22 16:29:00,69.3,15.3,29.32,WSW,248,8.3,18.6,13,0.00,,,0.00,WUHU216HW,2013-03-22 22:29:00,
2013-03-22 16:32:00,69.3,15.3,29.32,West,270,6.9,18.6,13,0.00,,,0.00,WUHU216HW,2013-03-22 22:32:00,
2013-03-22 16:33:00,69.5,15.4,29.32,West,270,9.8,18.6,13,0.00,,,0.00,WUHU216HW,2013-03-22 22:33:00,
2013-03-22 16:34:00,69.5,15.4,29.31,West,270,15.4,18.6,13,0.00,,,0.00,WUHU216HW,2013-03-22 22:34:00,
2013-03-22 16:37:00,69.5,15.4,29.31,WSW,248,6.9,15.4,13,0.00,,,0.00,WUHU216HW,2013-03-22 22:37:00,
2013-03-22 16:38:00,69.5,15.4,29.31,West,270,8.1,15.4,13,0.00,,,0.00,WUHU216HW,2013-03-22 22:38:00,
2013-03-22 16:39:00,69.5,15.4,29.31,WSW,248,11.4,15.4,13,0.00,,,0.00,WUHU216HW,2013-03-22 22:39:00,
2013-03-22 16:43:00,69.5,13.8,29.31,NW,315,12.8,15.4,12,0.00,,,0.00,WUHU216HW,2013-03-22 22:43:00,
2013-03-22 16:44:00,69.5,15.4,29.31,WSW,248,8.1,14.8,13,0.00,,,0.00,WUHU216HW,2013-03-22 22:44:00,
2013-03-22 16:45:00,69.5,15.4,29.31,West,270,6.9,14.8,13,0.00,,,0.00,WUHU216HW,2013-03-22 22:45:00,
2013-03-22 16:48:00,69.3,15.3,29.31,West,270,13.0,14.8,13,0.00,,,0.00,WUHU216HW,2013-03-22 22:48:00,
2013-03-22 16:49:00,69.1,15.1,29.31,SW,225,8.5,14.8,13,0.00,,,0.00,WUHU216HW,2013-03-22 22:49:00,
2013-03-22 16:50:00,68.9,15.0,29.31,West,270,7.6,14.3,13,0.00,,,0.00,WUHU216HW,2013-03-22 22:50:00,
2013-03-22 16:53:00,68.8,14.9,29.31,NW,315,7.2,13.0,13,0.00,,,0.00,WUHU216HW,2013-03-22 22:53:00,
2013-03-22 16:54:00,68.8,14.9,29.31,WNW,293,9.8,13.0,13,0.00,,,0.00,WUHU216HW,2013-03-22 22:54:00,
2013-03-22 16:55:00,68.8,14.9,29.31,WNW,293,6.3,13.0,13,0.00,,,0.00,WUHU216HW,2013-03-22 22:55:00,
2013-03-22 16:58:00,68.4,14.6,29.31,WSW,248,12.1,15.4,13,0.00,,,0.00,WUHU216HW,2013-03-22 22:58:00,
2013-03-22 16:59:00,68.4,14.6,29.31,WSW,248,10.5,15.4,13,0.00,,,0.00,WUHU216HW,2013-03-22 22:59:00,
2013-03-22 17:00:00,68.4,14.6,29.31,WNW,293,10.5,15.4,13,0.00,,,0.00,WUHU216HW,2013-03-22 23:00:00,
2013-03-22 17:03:00,68.0,15.9,29.31,NW,315,4.5,17.2,14,0.00,,,0.00,WUHU216HW,2013-03-22 23:03:00,
2013-03-22 17:04:00,68.0,15.9,29.31,WSW,248,5.6,17.2,14,0.00,,,0.00,WUHU216HW,2013-03-22 23:04:00,
2013-03-22 17:05:00,68.0,15.9,29.31,WSW,248,4.5,17.2,14,0.00,,,0.00,WUHU216HW,2013-03-22 23:05:00,
2013-03-22 17:08:00,68.0,15.9,29.31,WNW,293,1.3,17.2,14,0.00,,,0.00,WUHU216HW,2013-03-22 23:08:00,
2013-03-22 17:09:00,68.0,17.6,29.31,NNE,23,2.5,17.2,15,0.00,,,0.00,WUHU216HW,2013-03-22 23:09:00,
2013-03-22 17:10:00,68.2,17.7,29.31,SW,225,4.0,17.2,15,0.00,,,0.00,WUHU216HW,2013-03-22 23:10:00,
2013-03-22 17:14:00,68.4,14.6,29.31,WSW,248,8.3,12.3,13,0.00,,,0.00,WUHU216HW,2013-03-22 23:14:00,
2013-03-22 17:15:00,68.4,14.6,29.31,West,270,6.3,12.3,13,0.00,,,0.00,WUHU216HW,2013-03-22 23:15:00,
2013-03-22 17:19:00,68.4,14.6,29.31,WSW,248,9.6,12.3,13,0.00,,,0.00,WUHU216HW,2013-03-22 23:19:00,
2013-03-22 17:20:00,68.4,14.6,29.31,NW,315,4.0,12.3,13,0.00,,,0.00,WUHU216HW,2013-03-22 23:20:00,
2013-03-22 17:24:00,68.4,14.6,29.31,West,270,8.5,12.1,13,0.00,,,0.00,WUHU216HW,2013-03-22 23:24:00,
2013-03-22 17:25:00,68.4,14.6,29.31,SW,225,12.8,12.8,13,0.00,,,0.00,WUHU216HW,2013-03-22 23:25:00,
2013-03-22 17:29:00,68.4,13.0,29.30,NW,315,15.9,21.7,12,0.00,,,0.00,WUHU216HW,2013-03-22 23:29:00,
2013-03-22 17:30:00,68.4,13.0,29.31,West,270,13.6,21.7,12,0.00,,,0.00,WUHU216HW,2013-03-22 23:30:00,
2013-03-22 17:31:00,68.4,13.0,29.31,WSW,248,11.4,21.7,12,0.00,,,0.00,WUHU216HW,2013-03-22 23:31:00,
2013-03-22 17:34:00,68.2,12.9,29.31,WSW,248,4.7,21.7,12,0.00,,,0.00,WUHU216HW,2013-03-22 23:34:00,
2013-03-22 17:35:00,68.4,13.0,29.31,WNW,293,5.4,21.7,12,0.00,,,0.00,WUHU216HW,2013-03-22 23:35:00,
2013-03-22 17:36:00,68.4,13.0,29.31,NNW,338,4.3,21.7,12,0.00,,,0.00,WUHU216HW,2013-03-22 23:36:00,
2013-03-22 17:39:00,68.4,11.4,29.31,NW,315,10.1,16.1,11,0.00,,,0.00,WUHU216HW,2013-03-22 23:39:00,
2013-03-22 17:40:00,68.4,11.4,29.31,West,270,12.3,13.6,11,0.00,,,0.00,WUHU216HW,2013-03-22 23:40:00,
2013-03-22 17:42:00,68.4,11.4,29.30,WSW,248,7.8,12.3,11,0.00,,,0.00,WUHU216HW,2013-03-22 23:42:00,
2013-03-22 17:45:00,68.2,9.6,29.31,West,270,10.7,12.3,10,0.00,,,0.00,WUHU216HW,2013-03-22 23:45:00,
2013-03-22 17:46:00,68.2,9.6,29.30,West,270,16.3,17.7,10,0.00,,,0.00,WUHU216HW,2013-03-22 23:46:00,
2013-03-22 17:47:00,68.2,9.6,29.31,West,270,11.4,17.7,10,0.00,,,0.00,WUHU216HW,2013-03-22 23:47:00,
2013-03-22 17:50:00,68.2,9.6,29.30,WSW,248,7.6,17.7,10,0.00,,,0.00,WUHU216HW,2013-03-22 23:50:00,
2013-03-22 17:51:00,68.0,9.5,29.30,WNW,293,11.9,17.7,10,0.00,,,0.00,WUHU216HW,2013-03-22 23:51:00,
2013-03-22 17:52:00,68.0,9.5,29.30,West,270,8.9,17.7,10,0.00,,,0.00,WUHU216HW,2013-03-22 23:52:00,
2013-03-22 17:55:00,68.0,9.5,29.31,WSW,248,8.5,17.7,10,0.00,,,0.00,WUHU216HW,2013-03-22 23:55:00,
2013-03-22 17:57:00,67.9,9.4,29.31,West,270,6.5,15.7,10,0.00,,,0.00,WUHU216HW,2013-03-22 23:57:00,
2013-03-22 17:58:00,67.7,9.3,29.31,SW,225,9.8,15.7,9,0.00,,,0.00,WUHU216HW,2013-03-22 23:58:00,
2013-03-22 18:00:00,67.7,9.3,29.31,NW,315,10.3,15.7,10,0.00,,,0.00,WUHU216HW,2013-03-23 00:00:00,
2013-03-22 18:02:00,67.7,9.3,29.31,West,270,9.2,15.7,10,0.00,,,0.00,WUHU216HW,2013-03-23 00:02:00,
2013-03-22 18:03:00,67.7,9.3,29.31,NNW,338,12.5,15.7,10,0.00,,,0.00,WUHU216HW,2013-03-23 00:03:00,
2013-03-22 18:05:00,67.5,9.1,29.31,WSW,248,4.0,13.4,10,0.00,,,0.00,WUHU216HW,2013-03-23 00:05:00,
2013-03-22 18:06:00,67.5,10.7,29.31,West,270,5.4,13.4,11,0.00,,,0.00,WUHU216HW,2013-03-23 00:06:00,
2013-03-22 18:07:00,67.5,10.7,29.31,WNW,293,6.3,13.4,11,0.00,,,0.00,WUHU216HW,2013-03-23 00:07:00,
2013-03-22 18:08:00,67.5,10.7,29.31,WNW,293,9.6,13.0,11,0.00,,,0.00,WUHU216HW,2013-03-23 00:08:00,
2013-03-22 18:10:00,67.3,10.5,29.31,WNW,293,8.7,13.0,11,0.00,,,0.00,WUHU216HW,2013-03-23 00:10:00,
2013-03-22 18:11:00,67.3,10.5,29.31,NNE,23,7.2,13.0,11,0.00,,,0.00,WUHU216HW,2013-03-23 00:11:00,
2013-03-22 18:12:00,67.3,10.5,29.31,WSW,248,3.1,13.0,11,0.00,,,0.00,WUHU216HW,2013-03-23 00:12:00,
2013-03-22 18:13:00,67.1,10.5,29.31,NW,315,7.2,13.2,11,0.00,,,0.00,WUHU216HW,2013-03-23 00:13:00,
2013-03-22 18:15:00,67.0,10.3,29.31,West,270,5.1,13.2,11,0.00,,,0.00,WUHU216HW,2013-03-23 00:15:00,
2013-03-22 18:16:00,67.0,10.3,29.31,NNW,338,3.8,13.2,11,0.00,,,0.00,WUHU216HW,2013-03-23 00:16:00,
2013-03-22 18:17:00,67.0,10.3,29.31,NW,315,5.1,13.2,11,0.00,,,0.00,WUHU216HW,2013-03-23 00:17:00,
2013-03-22 18:18:00,67.0,10.3,29.31,NW,315,5.1,13.2,11,0.00,,,0.00,WUHU216HW,2013-03-23 00:18:00,
2013-03-22 18:21:00,66.6,10.0,29.31,WSW,248,5.6,13.2,11,0.00,,,0.00,WUHU216HW,2013-03-23 00:21:00,
2013-03-22 18:22:00,66.4,9.8,29.31,WNW,293,4.7,13.2,11,0.00,,,0.00,WUHU216HW,2013-03-23 00:22:00,
2013-03-22 18:23:00,66.4,9.8,29.31,NW,315,4.3,8.9,11,0.00,,,0.00,WUHU216HW,2013-03-23 00:23:00,
2013-03-22 18:26:00,66.2,9.7,29.31,WNW,293,6.3,9.4,11,0.00,,,0.00,WUHU216HW,2013-03-23 00:26:00,
2013-03-22 18:27:00,66.1,9.5,29.31,WNW,293,2.9,9.4,11,0.00,,,0.00,WUHU216HW,2013-03-23 00:27:00,
2013-03-22 18:28:00,66.1,9.5,29.31,SW,225,3.4,9.4,11,0.00,,,0.00,WUHU216HW,2013-03-23 00:28:00,
2013-03-22 18:31:00,65.9,9.4,29.31,WNW,293,4.9,9.4,11,0.00,,,0.00,WUHU216HW,2013-03-23 00:31:00,
2013-03-22 18:32:00,65.9,9.4,29.31,NNW,338,2.2,9.4,11,0.00,,,0.00,WUHU216HW,2013-03-23 00:32:00,
2013-03-22 18:33:00,65.9,9.4,29.31,WSW,248,4.0,9.4,11,0.00,,,0.00,WUHU216HW,2013-03-23 00:33:00,
2013-03-22 18:37:00,65.7,9.3,29.31,NW,315,6.0,9.2,11,0.00,,,0.00,WUHU216HW,2013-03-23 00:37:00,
2013-03-22 18:38:00,65.7,10.8,29.31,NW,315,3.4,9.2,12,0.00,,,0.00,WUHU216HW,2013-03-23 00:38:00,
2013-03-22 18:39:00,65.5,10.7,29.31,West,270,4.0,9.2,12,0.00,,,0.00,WUHU216HW,2013-03-23 00:39:00,
2013-03-22 18:42:00,65.5,9.1,29.31,WSW,248,4.7,9.2,11,0.00,,,0.00,WUHU216HW,2013-03-23 00:42:00,
2013-03-22 18:43:00,65.5,10.7,29.32,West,270,5.1,9.2,12,0.00,,,0.00,WUHU216HW,2013-03-23 00:43:00,
2013-03-22 18:44:00,65.5,10.7,29.32,West,270,3.1,9.2,12,0.00,,,0.00,WUHU216HW,2013-03-23 00:44:00,
2013-03-22 18:47:00,65.5,10.7,29.32,WNW,293,7.2,10.5,12,0.00,,,0.00,WUHU216HW,2013-03-23 00:47:00,
2013-03-22 18:48:00,65.3,10.5,29.32,WNW,293,4.5,10.5,12,0.00,,,0.00,WUHU216HW,2013-03-23 00:48:00,
2013-03-22 18:49:00,65.3,10.5,29.32,WNW,293,8.1,10.5,12,0.00,,,0.00,WUHU216HW,2013-03-23 00:49:00,
2013-03-22 18:52:00,65.3,10.5,29.32,West,270,3.4,10.5,12,0.00,,,0.00,WUHU216HW,2013-03-23 00:52:00,
2013-03-22 18:53:00,65.2,10.5,29.32,WSW,248,3.4,10.5,12,0.00,,,0.00,WUHU216HW,2013-03-23 00:53:00,
2013-03-22 18:54:00,65.3,10.5,29.32,WNW,293,6.3,10.5,12,0.00,,,0.00,WUHU216HW,2013-03-23 00:54:00,
2013-03-22 18:57:00,65.2,10.5,29.32,SW,225,9.4,9.4,12,0.00,,,0.00,WUHU216HW,2013-03-23 00:57:00,
2013-03-22 18:58:00,65.2,12.0,29.32,WSW,248,16.8,19.7,13,0.00,,,0.00,WUHU216HW,2013-03-23 00:58:00,
2013-03-22 18:59:00,65.2,12.0,29.32,WSW,248,12.1,19.7,13,0.00,,,0.00,WUHU216HW,2013-03-23 00:59:00,
2013-03-22 19:02:00,65.0,11.9,29.32,WSW,248,10.1,19.7,13,0.00,,,0.00,WUHU216HW,2013-03-23 01:02:00,
2013-03-22 19:03:00,64.8,11.7,29.33,West,270,17.2,19.7,13,0.00,,,0.00,WUHU216HW,2013-03-23 01:03:00,
2013-03-22 19:04:00,64.8,11.7,29.33,West,270,11.2,19.7,13,0.00,,,0.00,WUHU216HW,2013-03-23 01:04:00,
2013-03-22 19:07:00,64.6,14.8,29.33,WNW,293,8.3,19.7,15,0.00,,,0.00,WUHU216HW,2013-03-23 01:07:00,
2013-03-22 19:08:00,64.6,14.8,29.33,West,270,7.8,19.7,15,0.00,,,0.00,WUHU216HW,2013-03-23 01:08:00,
2013-03-22 19:09:00,64.6,14.8,29.33,West,270,12.3,17.2,15,0.00,,,0.00,WUHU216HW,2013-03-23 01:09:00,
2013-03-22 19:13:00,64.3,14.4,29.33,WNW,293,10.7,17.2,15,0.00,,,0.00,WUHU216HW,2013-03-23 01:13:00,
2013-03-22 19:14:00,64.3,16.0,29.33,West,270,7.4,17.0,16,0.00,,,0.00,WUHU216HW,2013-03-23 01:14:00,
2013-03-22 19:18:00,63.9,15.8,29.33,West,270,10.5,15.4,16,0.00,,,0.00,WUHU216HW,2013-03-23 01:18:00,
2013-03-22 19:19:00,63.9,15.8,29.34,WSW,248,8.5,15.4,16,0.00,,,0.00,WUHU216HW,2013-03-23 01:19:00,
2013-03-22 19:23:00,63.7,15.7,29.34,NNW,338,9.2,15.0,16,0.00,,,0.00,WUHU216HW,2013-03-23 01:23:00,
2013-03-22 19:24:00,63.5,15.5,29.34,WNW,293,9.2,15.0,16,0.00,,,0.00,WUHU216HW,2013-03-23 01:24:00,
2013-03-22 19:28:00,63.4,16.9,29.34,WNW,293,9.2,14.3,17,0.00,,,0.00,WUHU216HW,2013-03-23 01:28:00,
2013-03-22 19:29:00,63.4,16.9,29.34,WSW,248,8.1,14.3,17,0.00,,,0.00,WUHU216HW,2013-03-23 01:29:00,
2013-03-22 19:33:00,63.2,18.4,29.34,WSW,248,11.4,13.9,18,0.00,,,0.00,WUHU216HW,2013-03-23 01:33:00,
2013-03-22 19:34:00,63.0,16.7,29.35,West,270,8.5,13.9,17,0.00,,,0.00,WUHU216HW,2013-03-23 01:34:00,
2013-03-22 19:35:00,63.0,16.7,29.35,WSW,248,4.9,13.9,17,0.00,,,0.00,WUHU216HW,2013-03-23 01:35:00,
2013-03-22 19:38:00,63.0,18.2,29.35,West,270,10.3,13.9,18,0.00,,,0.00,WUHU216HW,2013-03-23 01:38:00,
2013-03-22 19:39:00,62.8,18.1,29.35,WSW,248,10.5,13.9,18,0.00,,,0.00,WUHU216HW,2013-03-23 01:39:00,
2013-03-22 19:40:00,62.8,18.1,29.35,SW,225,10.5,13.9,18,0.00,,,0.00,WUHU216HW,2013-03-23 01:40:00,
2013-03-22 19:43:00,62.6,19.5,29.35,WSW,248,9.8,11.9,19,0.00,,,0.00,WUHU216HW,2013-03-23 01:43:00,
2013-03-22 19:44:00,62.6,19.5,29.35,SW,225,16.3,16.3,19,0.00,,,0.00,WUHU216HW,2013-03-23 01:44:00,
2013-03-22 19:45:00,62.6,19.5,29.35,SW,225,8.5,16.3,19,0.00,,,0.00,WUHU216HW,2013-03-23 01:45:00,
2013-03-22 19:49:00,62.3,21.8,29.35,WSW,248,16.6,21.7,21,0.00,,,0.00,WUHU216HW,2013-03-23 01:49:00,
2013-03-22 19:50:00,62.3,22.7,29.35,WSW,248,15.0,21.7,22,0.00,,,0.00,WUHU216HW,2013-03-23 01:50:00,
2013-03-22 19:54:00,61.7,23.2,29.35,SW,225,17.2,21.7,23,0.00,,,0.00,WUHU216HW,2013-03-23 01:54:00,
2013-03-22 19:55:00,61.6,23.0,29.35,SSW,203,16.8,21.7,23,0.00,,,0.00,WUHU216HW,2013-03-23 01:55:00,
2013-03-22 19:59:00,61.0,23.6,29.36,WSW,248,20.1,20.1,24,0.00,,,0.00,WUHU216HW,2013-03-23 01:59:00,
2013-03-22 20:00:00,60.8,23.4,29.36,West,270,10.7,20.1,24,0.00,,,0.00,WUHU216HW,2013-03-23 02:00:00,
2013-03-22 20:04:00,60.5,24.1,29.36,SW,225,9.8,23.0,25,0.00,,,0.00,WUHU216HW,2013-03-23 02:04:00,
2013-03-22 20:05:00,60.5,25.0,29.36,WSW,248,11.9,23.0,26,0.00,,,0.00,WUHU216HW,2013-03-23 02:05:00,
2013-03-22 20:09:00,60.1,25.8,29.36,SW,225,16.1,23.0,27,0.00,,,0.00,WUHU216HW,2013-03-23 02:09:00,
2013-03-22 20:10:00,60.1,25.8,29.36,WSW,248,20.6,23.0,27,0.00,,,0.00,WUHU216HW,2013-03-23 02:10:00,
2013-03-22 20:14:00,59.8,26.4,29.36,SW,225,15.2,23.5,28,0.00,,,0.00,WUHU216HW,2013-03-23 02:14:00,
2013-03-22 20:15:00,59.8,26.4,29.36,SSW,203,13.2,23.5,28,0.00,,,0.00,WUHU216HW,2013-03-23 02:15:00,
2013-03-22 20:19:00,59.4,27.0,29.36,WSW,248,13.9,23.5,29,0.00,,,0.00,WUHU216HW,2013-03-23 02:19:00,
2013-03-22 20:20:00,59.4,27.0,29.36,SW,225,15.7,23.5,29,0.00,,,0.00,WUHU216HW,2013-03-23 02:20:00,
2013-03-22 20:24:00,59.0,26.7,29.36,WSW,248,16.8,20.1,29,0.00,,,0.00,WUHU216HW,2013-03-23 02:24:00,
2013-03-22 20:25:00,59.0,26.7,29.36,SW,225,13.4,20.1,29,0.00,,,0.00,WUHU216HW,2013-03-23 02:25:00,
2013-03-22 20:26:00,59.0,26.7,29.36,SW,225,10.3,19.2,29,0.00,,,0.00,WUHU216HW,2013-03-23 02:26:00,
2013-03-22 20:29:00,58.9,26.6,29.36,WSW,248,14.3,19.2,29,0.00,,,0.00,WUHU216HW,2013-03-23 02:29:00,
2013-03-22 20:30:00,58.9,26.6,29.37,SW,225,16.3,19.2,29,0.00,,,0.00,WUHU216HW,2013-03-23 02:30:00,
2013-03-22 20:31:00,58.7,26.5,29.37,WSW,248,17.7,19.2,29,0.00,,,0.00,WUHU216HW,2013-03-23 02:31:00,
2013-03-22 20:34:00,58.5,27.3,29.37,SSW,203,10.5,17.9,30,0.00,,,0.00,WUHU216HW,2013-03-23 02:34:00,
2013-03-22 20:35:00,58.5,27.3,29.37,WSW,248,10.7,17.7,30,0.00,,,0.00,WUHU216HW,2013-03-23 02:35:00,
2013-03-22 20:36:00,58.5,27.9,29.37,SW,225,10.3,17.7,31,0.00,,,0.00,WUHU216HW,2013-03-23 02:36:00,
2013-03-22 20:39:00,58.3,27.1,29.37,WSW,248,12.1,17.9,30,0.00,,,0.00,WUHU216HW,2013-03-23 02:39:00,
2013-03-22 20:40:00,58.1,27.6,29.37,WSW,248,14.1,17.9,31,0.00,,,0.00,WUHU216HW,2013-03-23 02:40:00,
2013-03-22 20:41:00,58.1,27.6,29.37,WSW,248,10.3,17.9,31,0.00,,,0.00,WUHU216HW,2013-03-23 02:41:00,
2013-03-22 20:42:00,58.1,27.6,29.37,WSW,248,10.3,17.9,31,0.00,,,0.00,WUHU216HW,2013-03-23 02:42:00,
2013-03-22 20:44:00,58.0,26.7,29.37,SW,225,13.2,17.9,30,0.00,,,0.00,WUHU216HW,2013-03-23 02:44:00,
2013-03-22 20:45:00,58.0,27.5,29.37,SSW,203,7.8,17.9,31,0.00,,,0.00,WUHU216HW,2013-03-23 02:45:00,
2013-03-22 20:47:00,58.0,27.5,29.37,South,180,9.8,19.0,31,0.00,,,0.00,WUHU216HW,2013-03-23 02:47:00,
2013-03-22 20:49:00,57.8,27.3,29.37,SW,225,9.2,19.0,31,0.00,,,0.00,WUHU216HW,2013-03-23 02:49:00,
2013-03-22 20:50:00,57.6,27.8,29.37,SW,225,12.3,19.0,32,0.00,,,0.00,WUHU216HW,2013-03-23 02:50:00,
2013-03-22 20:52:00,57.6,27.8,29.37,SW,225,11.0,19.0,32,0.00,,,0.00,WUHU216HW,2013-03-23 02:52:00,
2013-03-22 20:54:00,57.4,27.6,29.37,WSW,248,13.2,19.0,32,0.00,,,0.00,WUHU216HW,2013-03-23 02:54:00,
2013-03-22 20:55:00,57.2,27.6,29.37,West,270,11.4,19.0,32,0.00,,,0.00,WUHU216HW,2013-03-23 02:55:00,
2013-03-22 20:57:00,57.2,27.6,29.37,SW,225,9.8,14.3,32,0.00,,,0.00,WUHU216HW,2013-03-23 02:57:00,
2013-03-22 20:59:00,57.2,27.6,29.37,SW,225,5.6,14.3,32,0.00,,,0.00,WUHU216HW,2013-03-23 02:59:00,
2013-03-22 21:01:00,57.2,27.6,29.37,SW,225,12.1,14.3,32,0.00,,,0.00,WUHU216HW,2013-03-23 03:01:00,
2013-03-22 21:02:00,57.2,27.6,29.37,WSW,248,15.9,15.9,32,0.00,,,0.00,WUHU216HW,2013-03-23 03:02:00,
2013-03-22 21:04:00,57.1,27.4,29.37,SW,225,6.9,15.9,32,0.00,,,0.00,WUHU216HW,2013-03-23 03:04:00,
2013-03-22 21:06:00,56.9,27.2,29.37,WSW,248,11.0,15.9,32,0.00,,,0.00,WUHU216HW,2013-03-23 03:06:00,
2013-03-22 21:07:00,56.9,27.2,29.37,SW,225,11.9,15.9,32,0.00,,,0.00,WUHU216HW,2013-03-23 03:07:00,
2013-03-22 21:10:00,56.9,27.2,29.37,SW,225,12.1,15.9,32,0.00,,,0.00,WUHU216HW,2013-03-23 03:10:00,
2013-03-22 21:11:00,56.9,27.2,29.37,WSW,248,8.3,15.9,32,0.00,,,0.00,WUHU216HW,2013-03-23 03:11:00,
2013-03-22 21:12:00,56.7,27.0,29.38,SSW,203,10.1,15.4,32,0.00,,,0.00,WUHU216HW,2013-03-23 03:12:00,
2013-03-22 21:15:00,56.7,27.0,29.38,South,180,13.0,17.2,32,0.00,,,0.00,WUHU216HW,2013-03-23 03:15:00,
2013-03-22 21:16:00,56.7,27.0,29.38,WSW,248,6.9,17.2,32,0.00,,,0.00,WUHU216HW,2013-03-23 03:16:00,
2013-03-22 21:17:00,56.5,26.8,29.38,WSW,248,11.4,17.2,32,0.00,,,0.00,WUHU216HW,2013-03-23 03:17:00,
2013-03-22 21:18:00,56.5,26.8,29.38,WSW,248,14.5,17.2,32,0.00,,,0.00,WUHU216HW,2013-03-23 03:18:00,
2013-03-22 21:20:00,56.5,26.8,29.38,WSW,248,7.8,17.2,32,0.00,,,0.00,WUHU216HW,2013-03-23 03:20:00,
2013-03-22 21:22:00,56.5,26.8,29.38,SW,225,12.1,17.2,32,0.00,,,0.00,WUHU216HW,2013-03-23 03:22:00,
2013-03-22 21:23:00,56.3,26.7,29.38,SSW,203,8.7,17.2,32,0.00,,,0.00,WUHU216HW,2013-03-23 03:23:00,
2013-03-22 21:25:00,56.3,26.7,29.38,SW,225,15.0,15.0,32,0.00,,,0.00,WUHU216HW,2013-03-23 03:25:00,
2013-03-22 21:27:00,56.2,26.6,29.38,SW,225,12.1,15.0,32,0.00,,,0.00,WUHU216HW,2013-03-23 03:27:00,
2013-03-22 21:28:00,56.2,26.6,29.38,WSW,248,8.5,15.0,32,0.00,,,0.00,WUHU216HW,2013-03-23 03:28:00,
2013-03-22 21:30:00,56.2,26.6,29.38,SW,225,11.9,15.0,32,0.00,,,0.00,WUHU216HW,2013-03-23 03:30:00,
2013-03-22 21:33:00,56.0,27.1,29.38,SW,225,10.5,15.7,33,0.00,,,0.00,WUHU216HW,2013-03-23 03:33:00,
2013-03-22 21:36:00,56.0,27.1,29.38,SW,225,12.5,15.7,33,0.00,,,0.00,WUHU216HW,2013-03-23 03:36:00,
2013-03-22 21:38:00,56.0,27.1,29.38,WSW,248,12.5,15.7,33,0.00,,,0.00,WUHU216HW,2013-03-23 03:38:00,
2013-03-22 21:42:00,55.8,27.6,29.38,SW,225,13.6,15.7,34,0.00,,,0.00,WUHU216HW,2013-03-23 03:42:00,
2013-03-22 21:43:00,55.8,26.9,29.39,WSW,248,9.6,15.7,33,0.00,,,0.00,WUHU216HW,2013-03-23 03:43:00,
2013-03-22 21:47:00,55.8,27.6,29.38,SW,225,12.1,18.1,34,0.00,,,0.00,WUHU216HW,2013-03-23 03:47:00,
2013-03-22 21:48:00,55.8,27.6,29.38,SW,225,10.5,18.1,34,0.00,,,0.00,WUHU216HW,2013-03-23 03:48:00,
2013-03-22 21:49:00,55.8,27.6,29.39,WSW,248,12.1,18.1,34,0.00,,,0.00,WUHU216HW,2013-03-23 03:49:00,
2013-03-22 21:52:00,55.6,27.5,29.39,WSW,248,8.7,18.1,34,0.00,,,0.00,WUHU216HW,2013-03-23 03:52:00,
2013-03-22 21:53:00,55.6,27.5,29.39,SW,225,10.5,18.1,34,0.00,,,0.00,WUHU216HW,2013-03-23 03:53:00,
2013-03-22 21:54:00,55.6,27.5,29.39,SW,225,12.3,16.3,34,0.00,,,0.00,WUHU216HW,2013-03-23 03:54:00,
2013-03-22 21:57:00,55.4,28.0,29.38,SW,225,10.5,16.3,35,0.00,,,0.00,WUHU216HW,2013-03-23 03:57:00,
2013-03-22 21:58:00,55.4,27.3,29.38,WSW,248,12.1,16.3,34,0.00,,,0.00,WUHU216HW,2013-03-23 03:58:00,
2013-03-22 22:00:00,55.4,28.7,29.38,WSW,248,12.1,16.3,36,0.00,,,0.00,WUHU216HW,2013-03-23 04:00:00,
2013-03-22 22:05:00,55.3,28.5,29.39,WSW,248,13.4,15.7,36,0.00,,,0.00,WUHU216HW,2013-03-23 04:05:00,
2013-03-22 22:06:00,55.3,28.5,29.38,SW,225,9.4,15.7,36,0.00,,,0.00,WUHU216HW,2013-03-23 04:06:00,
2013-03-22 22:10:00,55.1,28.4,29.38,WSW,248,10.5,15.7,36,0.00,,,0.00,WUHU216HW,2013-03-23 04:10:00,
2013-03-22 22:13:00,55.1,28.4,29.38,WSW,248,15.2,15.7,36,0.00,,,0.00,WUHU216HW,2013-03-23 04:13:00,
2013-03-22 22:15:00,55.1,28.4,29.38,WSW,248,11.0,15.2,36,0.00,,,0.00,WUHU216HW,2013-03-23 04:15:00,
2013-03-22 22:18:00,55.1,28.4,29.38,WSW,248,16.3,16.3,36,0.00,,,0.00,WUHU216HW,2013-03-23 04:18:00,
2013-03-22 22:20:00,55.1,27.7,29.38,West,270,12.8,16.3,35,0.00,,,0.00,WUHU216HW,2013-03-23 04:20:00,
2013-03-22 22:21:00,55.1,28.4,29.38,WSW,248,8.5,16.3,36,0.00,,,0.00,WUHU216HW,2013-03-23 04:21:00,
2013-03-22 22:23:00,54.9,27.6,29.38,WSW,248,11.4,16.3,35,0.00,,,0.00,WUHU216HW,2013-03-23 04:23:00,
2013-03-22 22:25:00,54.9,27.6,29.39,WSW,248,10.5,16.3,35,0.00,,,0.00,WUHU216HW,2013-03-23 04:25:00,
2013-03-22 22:26:00,54.9,27.6,29.39,WSW,248,11.4,16.3,35,0.00,,,0.00,WUHU216HW,2013-03-23 04:26:00,
2013-03-22 22:28:00,54.7,27.4,29.39,WSW,248,8.3,15.0,35,0.00,,,0.00,WUHU216HW,2013-03-23 04:28:00,
2013-03-22 22:30:00,54.7,27.4,29.38,WSW,248,8.3,15.0,35,0.00,,,0.00,WUHU216HW,2013-03-23 04:30:00,
2013-03-22 22:31:00,54.7,28.1,29.39,WSW,248,8.5,15.0,36,0.00,,,0.00,WUHU216HW,2013-03-23 04:31:00,
2013-03-22 22:33:00,54.7,28.1,29.39,SSW,203,9.8,15.0,36,0.00,,,0.00,WUHU216HW,2013-03-23 04:33:00,
2013-03-22 22:35:00,54.5,27.3,29.39,WSW,248,11.4,15.0,35,0.00,,,0.00,WUHU216HW,2013-03-23 04:35:00,
2013-03-22 22:36:00,54.5,27.3,29.39,South,180,10.5,15.9,35,0.00,,,0.00,WUHU216HW,2013-03-23 04:36:00,
2013-03-22 22:38:00,54.5,27.9,29.39,WSW,248,8.7,15.9,36,0.00,,,0.00,WUHU216HW,2013-03-23 04:38:00,
2013-03-22 22:40:00,54.4,27.7,29.39,WSW,248,10.1,15.9,36,0.00,,,0.00,WUHU216HW,2013-03-23 04:40:00,
2013-03-22 22:41:00,54.4,27.7,29.39,SW,225,6.3,15.9,36,0.00,,,0.00,WUHU216HW,2013-03-23 04:41:00,
2013-03-22 22:42:00,54.4,27.1,29.39,WSW,248,10.3,15.9,35,0.00,,,0.00,WUHU216HW,2013-03-23 04:42:00,
2013-03-22 22:43:00,54.4,27.7,29.39,West,270,9.8,15.9,36,0.00,,,0.00,WUHU216HW,2013-03-23 04:43:00,
2013-03-22 22:45:00,54.4,27.1,29.39,WSW,248,11.2,15.9,35,0.00,,,0.00,WUHU216HW,2013-03-23 04:45:00,
2013-03-22 22:46:00,54.4,27.1,29.39,WSW,248,9.2,14.8,35,0.00,,,0.00,WUHU216HW,2013-03-23 04:46:00,
2013-03-22 22:47:00,54.4,27.1,29.39,West,270,8.7,14.8,35,0.00,,,0.00,WUHU216HW,2013-03-23 04:47:00,
2013-03-22 22:49:00,54.4,26.4,29.39,WSW,248,5.4,14.8,34,0.00,,,0.00,WUHU216HW,2013-03-23 04:49:00,
2013-03-22 22:50:00,54.4,26.4,29.39,West,270,11.4,17.2,34,0.00,,,0.00,WUHU216HW,2013-03-23 04:50:00,
2013-03-22 22:51:00,54.4,26.4,29.39,SW,225,9.8,17.2,34,0.00,,,0.00,WUHU216HW,2013-03-23 04:51:00,
2013-03-22 22:52:00,54.4,26.4,29.39,West,270,11.4,17.2,34,0.00,,,0.00,WUHU216HW,2013-03-23 04:52:00,
2013-03-22 22:54:00,54.2,26.9,29.39,WSW,248,11.4,17.2,35,0.00,,,0.00,WUHU216HW,2013-03-23 04:54:00,
2013-03-22 22:55:00,54.2,26.2,29.39,WSW,248,9.8,17.2,34,0.00,,,0.00,WUHU216HW,2013-03-23 04:55:00,
2013-03-22 22:57:00,54.2,26.2,29.39,SW,225,9.6,17.2,34,0.00,,,0.00,WUHU216HW,2013-03-23 04:57:00,
2013-03-22 22:59:00,54.2,26.2,29.39,WSW,248,12.5,17.2,34,0.00,,,0.00,WUHU216HW,2013-03-23 04:59:00,
2013-03-22 23:00:00,54.2,26.2,29.39,SW,225,12.5,15.0,34,0.00,,,0.00,WUHU216HW,2013-03-23 05:00:00,
2013-03-22 23:02:00,54.2,26.2,29.39,WSW,248,13.4,15.0,34,0.00,,,0.00,WUHU216HW,2013-03-23 05:02:00,
2013-03-22 23:04:00,54.2,26.2,29.39,WSW,248,14.5,16.8,34,0.00,,,0.00,WUHU216HW,2013-03-23 05:04:00,
2013-03-22 23:05:00,54.2,26.2,29.39,SW,225,13.9,17.2,34,0.00,,,0.00,WUHU216HW,2013-03-23 05:05:00,
2013-03-22 23:07:00,54.2,26.2,29.39,WSW,248,12.5,17.2,34,0.00,,,0.00,WUHU216HW,2013-03-23 05:07:00,
2013-03-22 23:09:00,54.2,26.2,29.39,SW,225,12.3,17.2,34,0.00,,,0.00,WUHU216HW,2013-03-23 05:09:00,
2013-03-22 23:10:00,54.2,26.2,29.39,SW,225,12.5,17.2,34,0.00,,,0.00,WUHU216HW,2013-03-23 05:10:00,
2013-03-22 23:12:00,54.2,26.2,29.39,SW,225,8.9,17.2,34,0.00,,,0.00,WUHU216HW,2013-03-23 05:12:00,
2013-03-22 23:15:00,54.2,26.2,29.39,WSW,248,8.5,16.3,34,0.00,,,0.00,WUHU216HW,2013-03-23 05:15:00,
2013-03-22 23:16:00,54.2,26.9,29.39,SW,225,16.1,16.3,35,0.00,,,0.00,WUHU216HW,2013-03-23 05:16:00,
2013-03-22 23:17:00,54.2,26.9,29.39,SW,225,6.7,16.3,35,0.00,,,0.00,WUHU216HW,2013-03-23 05:17:00,
2013-03-22 23:20:00,54.0,26.7,29.39,West,270,5.6,16.1,35,0.00,,,0.00,WUHU216HW,2013-03-23 05:20:00,
2013-03-22 23:22:00,54.0,26.7,29.39,WSW,248,7.8,16.1,35,0.00,,,0.00,WUHU216HW,2013-03-23 05:22:00,
2013-03-22 23:25:00,53.8,27.3,29.39,SW,225,7.6,16.1,36,0.00,,,0.00,WUHU216HW,2013-03-23 05:25:00,
2013-03-22 23:27:00,53.8,27.3,29.39,West,270,8.5,11.4,36,0.00,,,0.00,WUHU216HW,2013-03-23 05:27:00,
2013-03-22 23:28:00,53.8,27.3,29.39,West,270,8.5,11.4,36,0.00,,,0.00,WUHU216HW,2013-03-23 05:28:00,
2013-03-22 23:30:00,53.6,27.2,29.39,WSW,248,9.8,11.4,36,0.00,,,0.00,WUHU216HW,2013-03-23 05:30:00,
2013-03-22 23:33:00,53.6,27.2,29.39,WSW,248,13.4,13.4,36,0.00,,,0.00,WUHU216HW,2013-03-23 05:33:00,
2013-03-22 23:35:00,53.6,27.2,29.39,SW,225,8.3,13.4,36,0.00,,,0.00,WUHU216HW,2013-03-23 05:35:00,
2013-03-22 23:38:00,53.5,27.0,29.39,WSW,248,9.4,13.4,36,0.00,,,0.00,WUHU216HW,2013-03-23 05:38:00,
2013-03-22 23:40:00,53.5,27.6,29.39,SW,225,12.1,13.4,37,0.00,,,0.00,WUHU216HW,2013-03-23 05:40:00,
2013-03-22 23:43:00,53.5,27.6,29.39,WSW,248,6.5,13.4,37,0.00,,,0.00,WUHU216HW,2013-03-23 05:43:00,
2013-03-22 23:45:00,53.3,27.6,29.39,West,270,6.9,12.1,37,0.00,,,0.00,WUHU216HW,2013-03-23 05:45:00,
2013-03-22 23:48:00,53.3,27.6,29.39,West,270,10.5,13.4,37,0.00,,,0.00,WUHU216HW,2013-03-23 05:48:00,
2013-03-22 23:49:00,53.3,27.6,29.39,WSW,248,11.2,13.4,37,0.00,,,0.00,WUHU216HW,2013-03-23 05:49:00,
2013-03-22 23:50:00,53.3,27.6,29.39,WSW,248,8.3,13.4,37,0.00,,,0.00,WUHU216HW,2013-03-23 05:50:00,
2013-03-22 23:53:00,53.1,27.4,29.39,West,270,7.4,13.4,37,0.00,,,0.00,WUHU216HW,2013-03-23 05:53:00,
2013-03-22 23:54:00,53.1,27.4,29.39,WSW,248,4.7,13.4,37,0.00,,,0.00,WUHU216HW,2013-03-23 05:54:00,
2013-03-22 23:56:00,53.1,26.6,29.39,West,270,5.4,13.4,36,0.00,,,0.00,WUHU216HW,2013-03-23 05:56:00,
2013-03-22 23:58:00,53.1,26.6,29.39,West,270,3.8,13.2,36,0.00,,,0.00,WUHU216HW,2013-03-23 05:58:00,
2013-03-22 23:59:00,53.1,26.6,29.39,WNW,293,6.3,13.2,36,0.00,,,0.00,WUHU216HW,2013-03-23 05:59:00,